GFSNGP_sfc_rhum_048.txt.gz
RH
78 67 62 69 75 77 91 85 95 69 69 63 70 65 62 58 63 64 43 70 71 72 69 74 74 59 50 43 41 35 35 36 35 31 28 28 29 28 34 32 31 33 34 32
93 66 64 79 68 67 67 70 95 93 95 74 58 51 58 68 76 80 66 79 76 74 68 57 49 48 43 43 40 35 38 42 35 30 30 32 31 34 35 37 36 35 35 32
90 65 61 78 68 66 88 84 89 98 78 64 68 57 80 84 82 77 70 78 78 70 52 46 44 41 45 39 41 41 39 36 35 33 34 36 34 34 38 37 38 34 34 34
96 74 91 53 58 65 74 77 77 79 67 61 62 77 88 89 84 73 70 73 69 52 46 41 38 38 38 40 42 44 43 37 35 34 34 36 36 38 40 36 36 36 34 33
87 68 59 55 59 66 77 84 76 78 79 70 74 87 90 81 60 63 59 54 50 44 42 39 41 42 47 47 48 45 49 45 35 35 36 35 35 36 37 37 33 33 35 34
96 92 84 56 58 59 70 97 69 84 82 77 78 93 98 80 58 55 50 48 52 53 52 59 58 51 54 52 52 53 48 43 40 47 40 40 41 39 37 37 37 37 35 36
95 93 72 43 64 73 94 82 70 82 84 77 91 90 85 72 79 82 85 78 71 75 84 86 82 81 84 85 85 81 77 75 59 40 38 36 36 36 38 41 41 40 37 37
92 96 92 54 60 72 66 71 70 88 81 78 80 79 65 58 78 82 86 84 86 95 94 95 92 88 90 83 72 52 41 38 37 36 36 34 38 40 40 41 41 38 42 46
79 74 50 57 57 59 60 65 66 71 91 82 92 88 74 67 70 65 60 48 47 51 49 42 36 32 38 42 38 37 36 37 37 36 38 40 42 44 43 40 40 42 47 51
72 58 56 60 58 64 69 70 63 74 85 92 90 87 77 85 85 83 73 76 69 63 62 62 54 46 42 37 35 35 36 38 40 41 44 44 47 44 42 46 50 52 53 60
67 57 60 60 65 66 66 64 62 67 73 84 81 71 69 78 63 66 67 66 46 43 40 38 36 36 34 34 33 36 41 48 49 46 44 45 45 46 48 65 61 66 70 67
69 60 62 75 71 65 64 66 62 67 76 79 78 84 72 70 52 46 47 42 41 39 37 36 35 35 36 37 38 42 46 51 53 51 49 48 45 49 46 45 43 46 48 54
63 62 66 68 64 60 61 63 61 65 68 71 67 61 59 56 51 49 46 42 41 41 38 36 38 38 37 41 45 50 52 50 50 45 45 44 45 47 46 47 41 41 46 41
59 61 71 68 73 63 62 64 61 58 58 60 58 54 52 51 45 45 43 42 41 41 41 40 40 43 46 48 53 57 58 54 56 55 53 50 48 46 47 48 47 46 43 43
60 62 66 67 66 69 66 60 62 60 59 58 54 53 49 48 47 44 40 39 40 42 43 44 48 54 52 53 56 57 58 57 58 60 59 48 44 46 48 47 48 52 55 52
75 74 74 77 78 74 74 68 59 58 58 56 52 49 46 44 44 42 41 40 44 51 52 54 55 54 54 58 67 69 63 49 48 46 44 43 46 50 49 50 55 60 61 59
89 95 91 95 86 76 66 60 56 56 53 51 48 46 46 46 47 48 46 44 47 52 54 55 58 56 55 56 59 66 64 59 39 44 46 47 52 54 54 57 61 62 62 54
78 83 86 80 74 75 71 63 62 53 50 47 46 45 46 46 49 49 48 49 51 54 56 59 59 60 55 51 50 52 52 49 47 49 47 50 60 58 56 59 62 64 65 55
73 76 81 75 78 75 73 66 53 48 47 45 45 47 45 47 48 48 48 50 53 59 67 65 62 60 57 47 50 50 47 44 44 46 48 52 55 56 61 62 64 66 67 58
74 71 82 80 73 68 66 62 48 46 45 47 48 48 49 48 46 46 47 54 58 63 65 67 62 62 58 49 47 51 49 49 48 49 52 60 58 62 64 60 62 64 69 64
79 76 78 77 73 60 54 47 46 48 50 48 49 50 49 47 52 56 60 69 77 69 72 65 65 61 58 50 51 54 54 52 51 57 60 62 64 69 74 78 78 73 73 72
80 78 75 68 63 59 52 47 49 51 53 53 51 49 52 59 65 67 64 66 72 68 71 69 62 55 54 48 55 56 56 54 56 60 67 72 79 88 96 96 95 90 88 94
80 77 72 69 62 57 52 52 51 52 53 51 51 52 53 56 58 62 71 74 74 65 74 74 62 54 46 56 56 56 56 58 60 69 92 95 96 97 97 96 95 96 96 94
78 77 74 67 60 59 60 62 57 54 53 51 55 55 56 62 74 74 67 67 66 72 78 73 64 49 46 56 59 61 62 65 91 95 96 77 97 97 97 97 96 96 95 92
92 90 89 83 76 71 69 67 66 63 59 61 62 62 63 65 70 74 74 74 70 79 80 66 57 48 56 58 62 64 74 92 93 96 95 96 97 97 97 97 96 94 94 96
85 83 83 77 76 70 62 57 60 58 58 62 64 64 65 64 65 74 76 73 72 73 78 68 58 53 56 58 64 61 68 88 89 94 91 96 96 97 97 96 96 94 92 95
93 78 84 77 73 68 62 58 59 61 59 61 66 67 68 68 70 70 66 58 50 48 50 51 52 53 56 58 58 60 88 93 80 94 97 97 97 97 96 96 95 93 93 93

GFSNGP_sfc_rhum_051.txt.gz
RH
83 77 77 79 82 78 87 74 92 63 62 55 53 66 67 64 68 60 63 71 79 71 79 92 79 72 62 57 48 43 44 47 44 44 38 33 37 36 33 35 34 34 37 40
95 73 76 85 73 74 74 70 68 66 74 63 62 64 61 81 81 79 75 79 76 78 82 70 62 47 50 62 57 48 42 43 42 36 37 39 35 37 35 34 35 37 38 39
95 71 73 88 74 74 75 78 68 92 76 70 74 73 90 90 86 79 76 80 78 62 56 48 45 45 50 53 48 44 42 36 35 36 42 47 46 41 36 36 35 39 40 38
98 88 90 62 60 62 72 74 78 76 74 73 74 84 84 67 70 67 67 67 53 49 49 45 44 44 44 47 42 42 40 44 51 58 61 52 39 40 45 46 49 41 35 36
91 91 68 58 69 69 80 84 74 78 69 76 80 87 91 61 53 55 52 48 48 45 45 47 48 48 51 57 52 52 50 51 68 60 48 45 46 43 36 34 36 36 37 36
97 96 90 62 64 70 76 94 77 76 83 81 88 94 98 87 60 57 53 50 52 51 51 55 55 56 65 67 80 96 86 84 57 56 62 72 69 68 60 43 39 38 36 36
84 97 78 55 63 78 90 80 73 80 89 81 93 90 85 84 82 73 71 74 73 75 76 77 76 76 83 87 95 99 81 85 88 91 89 78 61 46 41 41 40 39 40 42
89 97 92 53 80 79 66 76 79 86 85 88 79 66 79 82 87 87 86 92 91 94 98 92 90 87 98 97 99 96 92 93 89 67 45 39 41 41 42 43 43 42 45 49
82 75 53 58 61 75 69 73 81 78 92 84 80 70 64 67 74 86 90 92 91 95 96 96 97 90 97 99 93 78 54 48 46 43 40 42 45 47 45 42 44 48 52 58
76 62 60 55 77 73 75 78 75 74 92 88 85 74 72 71 64 64 61 60 58 57 56 48 42 40 41 39 39 43 50 51 43 45 47 47 50 45 48 52 55 56 61 67
71 63 76 75 72 79 76 69 70 71 85 86 85 82 79 81 73 69 67 63 62 66 62 52 49 47 45 41 37 38 41 50 52 51 48 48 48 49 64 66 55 59 73 68
77 58 66 76 81 73 73 72 72 74 92 81 73 83 79 84 73 68 53 47 46 43 40 39 37 37 39 38 39 44 51 53 56 55 52 50 49 48 50 48 45 46 46 52
64 67 70 75 71 70 68 69 69 76 86 87 80 70 70 55 46 48 43 43 43 42 39 38 41 43 42 44 50 54 55 54 56 49 47 47 49 49 49 49 47 45 42 44
60 64 80 76 75 66 67 67 65 64 64 66 67 67 70 68 58 64 53 42 40 41 43 43 45 49 52 50 54 58 61 55 58 58 55 53 50 50 52 50 50 50 50 51
75 73 72 72 73 72 69 66 68 64 62 62 57 55 52 63 58 47 43 40 41 43 46 48 53 61 55 55 56 58 57 60 63 60 56 50 48 51 52 51 55 60 62 56
83 78 78 80 80 77 72 69 67 64 64 61 54 50 49 46 46 45 44 44 46 51 53 56 60 62 61 62 65 64 60 53 51 48 48 49 54 54 53 57 63 65 66 64
82 93 90 93 84 80 74 63 56 57 55 51 49 47 47 46 46 48 49 49 52 56 60 60 65 65 66 66 65 65 62 55 50 49 49 53 59 59 58 62 66 67 68 59
85 78 83 84 82 75 67 59 56 52 50 48 49 47 50 49 50 52 54 54 56 60 61 62 63 59 55 53 55 56 54 51 49 51 50 55 61 58 62 64 66 70 70 60
74 75 81 77 69 68 67 62 55 50 51 50 47 49 49 49 51 54 52 54 57 59 66 68 59 55 53 54 53 52 50 48 48 50 52 57 59 61 66 68 70 72 74 66
78 81 80 80 76 75 78 69 50 46 46 47 49 49 50 50 51 52 53 59 61 64 69 64 59 58 56 53 52 54 52 51 51 55 61 64 64 68 71 72 75 76 78 73
82 84 92 79 74 70 72 64 52 48 51 49 50 50 51 51 54 57 58 65 75 69 68 62 61 60 59 57 57 57 56 54 56 64 65 69 74 81 86 88 86 80 80 79
81 79 79 74 64 58 52 48 48 51 52 53 51 50 54 61 65 73 70 67 78 70 71 67 61 56 56 56 59 58 58 58 62 66 75 81 82 89 97 98 97 93 92 95
80 78 71 68 62 56 51 55 53 53 55 54 52 53 53 56 59 64 77 82 78 69 71 70 59 52 54 60 60 59 59 62 66 79 96 97 97 98 98 98 97 97 97 96
81 80 76 68 61 60 69 71 68 57 54 52 53 54 58 61 70 71 71 71 70 69 75 68 57 53 54 60 62 65 66 71 94 96 97 76 97 98 98 98 97 97 97 96
91 92 90 83 78 76 79 76 69 64 57 60 63 64 63 64 68 74 70 72 72 75 75 59 54 54 57 61 65 66 77 94 94 97 96 97 98 98 98 98 97 97 97 97
88 84 80 76 76 74 68 60 60 59 58 63 66 68 70 69 70 75 80 81 77 73 76 66 57 57 58 60 65 63 71 92 91 95 93 97 97 98 97 96 97 97 96 96
95 82 90 79 77 70 63 62 60 61 59 61 68 70 71 74 75 76 77 76 74 64 59 62 60 54 56 60 58 60 89 95 85 96 98 98 97 97 96 96 96 96 96 94

GFSNGP_sfc_rhum_054.txt.gz
RH
85 78 81 79 79 82 89 75 90 72 70 54 45 45 55 64 75 75 74 72 70 78 84 88 75 69 69 70 73 73 68 62 59 52 47 41 40 39 39 38 38 40 44 53
92 76 82 91 82 80 77 72 71 68 69 45 44 66 71 85 82 80 72 73 78 77 80 66 66 69 72 71 66 73 66 62 51 46 49 49 46 48 46 52 59 64 77 77
94 76 79 92 81 78 76 75 65 79 60 52 70 73 87 78 73 70 65 78 65 51 49 52 61 62 68 67 69 66 57 55 55 50 51 53 54 57 63 66 65 70 56 49
97 89 94 62 65 65 69 64 64 63 69 68 72 86 70 68 62 60 60 54 56 49 51 54 58 68 73 73 78 74 72 70 62 67 73 72 74 75 83 88 75 73 70 67
88 99 74 63 76 74 82 76 72 74 71 69 77 93 88 81 53 52 49 56 51 49 51 51 54 55 62 69 76 82 80 78 80 79 83 78 81 80 62 51 60 58 46 41
95 98 87 68 69 76 80 94 74 75 76 91 87 94 94 85 63 59 52 53 54 55 56 63 64 63 66 72 77 87 85 92 91 96 93 91 82 85 93 94 82 63 52 43
92 88 83 57 59 81 90 75 76 82 88 90 95 86 86 83 76 70 78 78 72 73 76 73 71 71 89 91 98 100 95 98 98 96 91 95 99 99 92 77 57 42 43 46
91 96 94 55 84 82 66 74 81 88 84 90 78 80 83 83 84 83 88 92 90 96 99 92 88 93 98 98 100 100 97 97 96 94 96 94 92 77 58 47 48 50 52 58
80 77 56 60 66 61 72 79 80 86 91 83 76 80 80 85 88 88 89 92 94 94 98 98 96 92 97 99 97 98 96 93 87 66 48 42 44 48 48 49 50 53 55 60
77 67 66 60 63 76 81 82 79 82 90 81 70 69 68 74 82 87 87 88 90 90 89 85 81 86 95 88 72 57 56 52 46 49 50 50 51 48 51 53 55 54 58 64
82 64 64 79 76 80 81 74 70 74 92 88 67 72 71 73 70 65 65 58 54 53 52 51 50 50 47 46 54 59 46 55 58 53 49 51 53 59 62 61 50 56 69 66
84 62 61 64 78 78 79 74 72 84 95 79 75 76 67 76 67 64 64 63 59 49 48 47 47 45 42 42 46 49 54 54 57 56 52 54 57 56 53 48 46 46 52 57
71 66 72 80 79 73 70 73 76 88 87 84 80 77 74 74 67 57 50 49 48 46 43 41 42 45 48 50 52 54 56 57 58 49 50 50 49 47 47 48 45 48 49 50
63 66 79 73 74 68 69 72 70 76 81 81 77 71 68 81 62 59 60 46 44 43 46 47 50 52 54 53 55 57 60 55 57 57 54 53 52 52 52 50 53 56 54 55
80 81 79 79 73 74 74 70 73 74 71 76 72 74 68 69 85 62 44 41 44 47 49 50 55 62 59 59 60 64 63 64 61 58 55 51 52 53 53 55 61 67 66 60
76 76 81 84 81 79 74 74 71 71 69 65 60 64 68 76 73 49 44 45 48 51 53 55 58 63 61 58 59 59 59 54 52 49 50 54 57 56 57 63 68 70 70 68
92 88 88 92 86 83 77 69 64 63 61 56 55 53 56 58 54 49 47 48 51 56 56 55 67 66 63 62 62 66 63 58 50 49 54 60 62 59 61 66 70 71 72 64
92 90 83 76 86 76 71 62 58 55 54 50 51 59 66 64 53 55 56 55 56 57 58 66 67 66 62 59 55 55 53 52 51 53 56 62 60 61 67 68 71 75 76 67
86 85 81 80 75 67 64 60 56 52 51 55 64 69 60 55 54 55 52 52 54 59 64 64 61 56 54 53 52 52 51 50 51 53 62 58 62 67 70 76 80 82 84 75
85 87 77 75 67 66 64 57 53 59 60 66 53 51 53 53 53 52 50 52 52 59 68 64 55 58 60 55 52 54 52 52 54 58 67 66 72 75 82 79 81 82 84 78
85 83 96 88 79 80 74 69 69 64 57 53 52 52 55 54 52 54 57 58 75 66 63 59 57 60 62 59 57 56 55 55 58 65 66 73 79 84 89 91 88 83 84 83
86 80 83 76 79 79 76 69 53 55 56 57 54 53 55 61 61 69 64 61 75 65 65 61 60 58 61 56 58 57 59 59 63 69 81 86 87 91 97 98 98 96 95 97
82 78 79 76 66 63 64 61 56 53 56 55 54 54 54 55 56 60 71 76 74 69 64 61 59 57 56 60 58 58 60 63 66 80 96 97 97 98 98 98 98 98 98 97
82 82 77 68 63 65 72 76 80 72 67 56 56 54 57 62 69 70 70 75 73 66 65 65 59 58 56 60 62 64 66 71 93 97 97 79 97 98 98 98 98 97 97 97
92 89 90 87 78 73 83 84 77 69 57 59 61 60 59 61 61 80 75 75 69 70 77 60 59 57 59 60 63 64 75 95 94 96 97 97 98 98 98 98 97 97 98 97
91 89 83 77 76 76 74 69 67 60 59 61 65 67 72 74 71 73 74 75 74 71 75 70 66 58 57 61 64 63 72 92 92 95 93 97 98 98 98 97 97 97 96 96
92 78 81 77 77 74 72 69 66 63 59 59 64 68 74 75 73 77 80 81 78 73 64 59 62 56 56 60 58 59 88 96 87 96 98 98 98 98 97 97 97 97 96 95

GFSNGP_sfc_rhum_057.txt.gz
RH
81 77 81 80 80 90 87 82 89 81 75 57 46 47 43 77 78 73 72 72 73 77 89 82 67 71 78 78 78 71 67 69 73 68 60 57 53 47 43 41 41 44 49 60
91 76 82 90 82 79 84 78 80 72 73 48 44 42 68 84 74 72 67 60 71 61 60 62 72 83 78 77 71 63 58 58 56 51 51 51 53 53 56 61 67 72 79 83
96 78 81 89 84 82 79 79 67 80 59 45 57 70 83 76 71 64 65 58 53 54 55 62 69 76 81 74 60 63 62 61 55 56 62 64 64 69 75 81 85 90 89 82
95 89 94 64 63 68 71 64 64 55 52 52 67 79 70 72 62 58 54 60 58 55 60 69 71 69 71 77 80 81 79 78 77 80 80 80 82 88 92 94 93 95 96 98
94 96 78 69 81 76 78 76 63 59 56 69 79 91 88 76 57 53 51 54 56 55 59 62 70 73 79 85 86 87 90 95 93 85 88 90 95 97 98 97 98 99 97 85
96 95 88 65 79 77 72 87 67 70 71 89 91 97 96 79 67 60 61 56 60 66 66 69 67 65 70 76 83 94 91 94 89 92 93 97 96 97 100 100 99 93 81 76
84 87 78 61 55 80 83 74 66 81 83 86 88 86 89 75 82 86 76 75 76 80 82 81 83 82 92 96 98 100 93 95 97 97 98 98 100 100 100 96 92 78 52 52
97 97 92 57 83 84 62 71 71 85 87 85 82 82 83 82 82 86 88 88 94 97 99 92 88 89 98 98 100 100 99 99 100 100 98 96 95 93 94 68 55 51 53 54
80 77 57 55 66 57 66 72 76 84 89 82 83 83 84 87 86 90 88 87 90 97 99 97 96 95 97 99 99 97 97 99 99 90 72 56 53 52 52 53 55 56 54 57
80 64 62 56 63 67 68 77 81 76 90 76 78 79 81 88 89 88 88 87 92 93 94 96 93 96 96 92 84 79 79 61 51 54 55 54 54 53 54 55 55 52 53 60
72 72 62 63 71 65 72 80 76 72 90 76 72 72 74 81 82 86 83 79 70 68 60 76 84 81 67 60 57 48 54 59 60 54 55 59 60 57 58 57 49 54 64 62
86 72 69 72 67 70 80 78 72 77 95 82 66 72 73 77 67 68 68 62 58 57 56 56 53 49 49 53 49 54 57 57 58 57 61 64 68 71 54 52 48 52 58 58
76 73 71 70 76 77 77 73 77 85 92 87 75 72 70 77 66 68 64 58 55 53 51 48 47 53 53 55 53 56 60 59 58 51 51 50 50 47 47 49 52 54 54 54
68 72 77 80 77 75 74 76 78 91 89 85 84 71 72 72 71 59 58 51 48 48 49 54 56 57 56 55 56 59 62 54 54 55 52 53 53 52 51 51 56 60 57 57
83 82 82 82 83 80 81 76 85 90 90 88 79 75 81 87 80 72 64 45 46 50 53 54 59 61 59 58 60 66 62 61 57 55 54 54 54 53 55 59 65 70 70 62
84 82 76 76 80 80 78 79 79 80 83 82 84 76 73 80 79 59 46 49 53 55 54 55 62 63 61 60 61 60 59 54 54 54 54 57 57 57 60 66 71 72 73 71
96 92 90 90 84 79 80 75 72 73 71 68 73 78 78 83 79 67 55 60 54 56 56 54 62 62 59 59 60 66 65 58 48 51 57 61 60 60 65 69 72 74 76 68
94 93 91 90 88 79 75 67 65 65 59 56 59 67 73 77 74 67 70 59 59 58 57 58 66 63 60 61 61 62 61 56 51 54 62 64 61 65 69 71 75 81 82 74
83 86 91 90 89 79 70 63 60 55 52 55 66 74 73 74 77 72 57 54 54 55 61 67 65 63 58 56 54 54 54 53 52 59 66 60 66 69 73 82 86 88 89 79
84 81 90 80 72 72 66 60 57 59 58 65 71 78 80 80 75 59 54 52 50 52 64 70 61 58 58 58 52 54 52 53 54 64 64 68 74 76 84 80 83 84 87 81
88 84 94 87 77 69 60 57 64 72 76 75 76 78 74 64 54 52 56 57 66 64 67 64 58 63 64 61 57 56 55 55 57 64 66 72 79 84 89 91 89 85 86 86
96 88 88 79 82 82 77 75 72 72 76 73 62 58 59 62 61 64 60 55 74 66 66 60 62 61 66 58 58 56 57 57 61 69 79 85 87 92 97 98 98 95 95 97
94 82 83 90 78 77 71 67 60 60 63 59 57 58 58 58 58 60 62 75 69 67 60 60 60 59 57 61 57 57 58 61 64 74 95 97 98 98 98 98 98 98 98 97
88 85 80 76 80 78 77 85 84 81 64 58 58 56 58 63 69 67 67 70 71 66 62 57 58 59 61 59 60 61 63 66 91 97 97 80 98 98 98 97 97 97 97 95
93 92 91 84 77 73 89 94 88 84 78 75 64 61 60 58 57 78 75 75 70 67 64 58 61 62 66 62 62 62 71 94 96 95 96 97 97 98 98 97 97 97 97 97
94 91 90 84 80 78 77 79 79 70 62 65 67 65 66 70 73 76 77 74 72 67 72 73 75 69 59 62 62 60 68 86 91 95 92 97 98 98 97 96 96 96 96 96
92 90 96 89 76 75 75 73 73 71 63 61 65 67 67 71 74 76 73 77 76 74 71 69 69 59 56 60 63 58 78 89 85 95 96 98 98 97 96 96 96 96 96 95

GFSNGP_sfc_rhum_060.txt.gz
RH
77 78 82 82 85 88 87 85 89 79 79 60 53 50 49 47 76 79 71 67 64 73 81 81 80 72 72 82 78 72 78 79 72 70 68 66 62 60 60 62 58 52 56 60
91 76 83 91 82 85 85 81 84 76 78 50 45 45 48 81 76 77 70 61 54 59 64 71 73 86 78 77 73 67 68 61 59 60 64 69 69 71 79 73 66 72 77 83
94 84 85 91 86 82 85 85 76 90 62 45 50 54 78 78 71 67 58 62 58 63 67 69 71 71 78 71 66 67 63 62 65 67 74 77 79 82 81 83 85 91 91 90
92 88 95 61 65 68 72 68 70 63 52 48 50 78 73 70 66 64 55 59 59 60 69 75 73 76 79 83 81 81 77 76 75 79 84 85 88 91 94 94 92 94 97 98
92 94 76 74 80 77 76 80 64 62 53 50 74 88 92 67 56 61 62 56 60 65 65 69 73 77 80 83 87 89 91 93 87 85 90 92 98 99 99 99 100 100 100 100
97 90 90 62 78 74 77 94 63 62 60 75 87 94 94 77 64 74 66 60 68 69 68 70 74 73 82 95 96 99 97 96 92 94 97 99 98 99 100 100 99 96 95 95
88 92 76 60 61 75 93 78 64 76 81 83 91 87 87 72 87 86 75 76 79 83 88 86 84 86 97 97 99 100 94 97 98 98 98 98 100 100 100 99 93 84 73 63
94 99 94 58 83 80 63 69 75 82 85 87 89 85 81 78 85 92 87 86 91 92 98 90 87 92 99 99 100 100 98 98 100 99 99 100 99 96 90 70 60 59 57 56
83 78 59 54 65 60 64 67 77 85 86 87 84 86 82 87 85 95 85 85 92 97 96 96 92 95 97 100 99 97 97 97 99 98 76 62 59 53 55 54 57 57 52 58
81 64 68 56 57 61 72 78 79 81 84 85 80 83 84 87 89 87 82 87 90 95 96 97 96 97 99 98 91 95 90 66 56 57 56 56 55 54 55 55 57 51 51 61
78 75 70 73 65 67 70 72 78 77 87 84 79 79 83 90 90 84 85 87 82 80 90 96 91 88 81 73 57 51 58 62 59 57 60 60 53 53 56 54 52 57 64 62
89 72 79 76 67 69 74 77 75 78 91 86 73 75 78 85 83 84 82 70 64 66 73 78 67 58 60 54 55 59 58 55 60 64 71 72 77 79 56 55 56 57 60 59
69 80 78 78 82 79 79 77 77 80 87 90 70 71 74 75 71 70 66 68 66 67 63 58 54 53 56 58 56 56 61 59 61 55 54 53 54 52 51 54 56 57 57 55
83 76 82 76 83 77 78 78 79 90 91 90 80 82 81 74 80 70 69 61 63 59 55 53 55 59 61 58 57 60 62 54 52 53 52 55 54 52 52 53 57 61 59 59
84 80 84 85 80 81 82 80 87 91 93 93 91 84 80 80 86 82 57 51 52 56 60 60 60 61 60 58 58 65 61 58 55 55 56 55 54 55 58 62 67 72 72 63
84 85 84 86 80 77 75 75 84 88 92 92 90 91 83 85 85 79 67 54 54 58 61 60 61 61 62 61 62 59 56 53 56 59 57 57 56 58 62 68 73 74 75 74
97 94 92 94 90 83 76 70 71 79 85 88 89 86 87 85 82 77 68 62 59 57 56 55 60 63 60 57 56 63 66 59 51 53 57 59 60 61 67 70 74 77 79 72
87 93 95 95 94 92 85 74 69 68 70 70 75 78 84 87 88 86 81 71 69 61 56 55 59 60 56 57 60 63 60 59 52 57 65 63 62 67 70 72 78 85 86 78
85 86 84 86 94 94 92 77 67 63 60 63 71 77 78 81 83 85 88 83 88 72 60 60 64 60 58 59 60 59 55 52 53 63 64 63 69 70 75 84 88 90 91 81
91 82 82 90 78 82 82 67 59 56 58 62 69 77 82 83 87 89 94 92 81 62 60 66 61 55 56 62 56 55 53 53 54 64 63 66 72 75 82 78 82 84 87 82
99 93 88 87 78 65 61 60 62 66 72 74 77 82 84 87 90 96 95 94 71 62 63 69 54 55 63 62 57 55 54 54 56 67 74 70 75 84 87 90 88 85 85 86
99 98 95 92 88 82 73 70 71 78 80 82 80 80 85 82 89 84 62 59 66 66 68 58 59 59 65 62 56 56 56 55 58 66 73 79 82 89 97 98 97 94 94 97
95 92 93 93 95 87 76 69 72 79 80 80 80 79 74 67 60 60 61 68 68 69 60 59 59 61 59 66 57 56 56 58 61 68 93 97 97 98 98 97 97 97 98 97
93 86 85 79 78 90 84 89 79 66 64 64 63 63 64 66 68 64 65 70 71 68 61 58 61 61 63 59 60 61 61 62 86 97 97 79 98 98 98 97 97 96 97 95
95 94 90 88 82 80 88 94 94 93 82 75 63 62 62 64 62 72 74 72 71 69 62 60 63 62 70 61 61 61 69 89 94 94 95 97 97 97 97 97 97 96 96 97
94 94 97 92 82 79 78 84 88 81 76 82 84 83 80 78 71 74 77 77 74 66 60 65 69 73 59 58 58 60 69 80 84 89 92 96 96 96 97 97 96 96 95 96
96 82 89 89 92 91 83 77 78 76 71 69 70 72 72 70 76 80 80 78 78 68 63 74 77 66 54 56 58 55 66 77 76 87 96 97 97 97 96 96 96 96 96 96

GFSNGP_sfc_rhum_063.txt.gz
RH
72 76 76 78 86 81 86 81 84 68 72 55 50 51 50 50 70 70 66 63 57 60 69 72 73 69 66 66 63 62 61 64 68 66 64 62 64 66 65 60 61 61 64 67
89 75 81 88 79 83 75 75 75 72 72 49 45 44 47 73 72 70 64 62 56 59 66 69 70 74 70 71 67 60 64 64 65 68 71 77 79 77 78 82 82 81 86 84
92 80 83 93 85 82 83 81 71 87 65 49 49 52 78 76 70 64 57 61 58 62 73 74 75 74 77 74 68 70 71 69 70 75 81 85 83 86 93 97 95 96 93 91
93 84 94 58 63 68 71 70 73 66 55 50 48 71 73 68 64 59 59 59 58 62 73 75 74 80 77 76 78 83 83 80 77 80 86 87 92 97 100 99 98 99 100 100
89 95 71 81 77 78 76 80 63 62 53 51 56 82 88 62 55 55 61 61 62 64 66 67 73 74 79 85 86 89 91 92 91 87 92 95 98 100 99 99 100 100 100 100
98 93 82 59 70 71 72 95 62 58 62 66 81 92 88 71 61 66 65 63 68 67 68 74 79 80 88 95 95 97 96 98 96 98 97 99 98 99 100 100 100 99 100 99
95 97 77 54 54 65 92 84 63 71 74 75 89 83 82 72 78 75 75 78 79 81 86 84 81 87 96 96 99 100 97 98 98 98 98 99 100 100 100 98 96 90 85 69
92 98 89 57 70 81 66 68 67 76 80 87 84 82 75 79 86 89 87 85 86 91 96 88 89 95 99 98 100 100 98 98 99 100 99 100 95 83 69 62 56 51 47 46
74 74 57 53 67 59 59 62 73 80 82 86 85 84 80 88 92 87 82 87 88 88 92 90 91 94 99 100 99 98 98 98 94 75 61 53 43 45 46 46 47 44 40 47
80 64 69 55 57 57 60 70 78 78 76 86 81 82 84 85 89 86 83 82 86 91 95 95 96 97 97 96 90 85 74 53 47 46 48 46 45 43 45 46 44 39 42 51
83 75 72 75 70 69 67 70 73 72 77 85 82 85 84 88 87 83 83 84 85 90 94 91 92 93 89 80 61 51 51 52 51 49 45 44 44 40 40 41 41 44 51 51
90 73 75 75 72 68 70 72 72 74 84 86 78 81 82 86 83 83 86 81 75 85 90 89 85 80 69 51 50 51 48 48 53 56 60 63 65 64 57 59 59 59 61 55
74 74 77 74 82 80 76 78 77 74 79 91 76 74 80 86 84 84 79 68 71 77 78 72 67 66 58 55 52 50 51 53 55 54 54 59 54 49 58 54 58 59 58 56
89 83 86 81 82 80 78 73 78 89 88 92 80 78 76 83 84 79 76 68 68 68 66 60 61 65 62 55 52 53 55 56 45 41 41 43 40 40 40 40 43 48 56 56
88 85 87 87 86 78 77 79 84 86 92 94 90 91 83 81 85 76 69 63 64 66 62 60 60 60 62 55 52 58 54 50 46 46 47 46 44 46 48 50 53 56 57 55
89 86 86 88 87 84 78 73 76 78 90 93 95 94 87 78 86 86 72 62 65 68 63 59 58 58 59 55 56 54 49 51 50 53 52 47 47 49 52 54 57 58 60 60
96 94 93 96 94 89 86 78 71 72 76 88 90 92 87 88 88 86 71 60 60 60 59 58 57 59 58 56 51 53 57 55 55 48 48 48 49 50 55 57 60 63 65 64
86 86 88 93 97 97 93 86 79 72 72 74 81 85 87 88 89 86 82 78 76 64 58 56 57 59 55 54 54 57 56 56 48 51 56 53 52 55 57 60 65 70 69 68
91 89 83 83 85 89 93 95 92 75 68 72 79 84 83 84 85 87 89 91 84 82 67 56 64 58 53 55 56 53 52 46 48 54 56 58 61 58 61 68 72 75 74 69
96 96 86 88 82 72 82 89 82 69 63 71 76 80 85 85 89 93 91 90 83 87 83 69 64 53 54 60 58 50 46 46 49 56 60 57 57 60 66 70 72 73 73 70
97 96 94 95 90 75 64 61 64 61 68 71 75 80 83 86 88 92 98 97 98 98 94 90 55 53 59 62 55 48 48 47 48 56 58 61 59 72 71 74 76 74 73 73
98 96 94 98 99 94 84 71 70 76 79 82 84 84 88 92 94 98 98 97 97 98 94 71 54 57 62 62 48 48 49 48 49 55 60 61 64 70 78 83 85 80 82 86
98 96 88 94 98 99 96 86 81 85 86 87 86 86 86 86 90 94 94 93 97 95 69 57 59 62 64 55 49 50 49 50 52 55 65 76 79 85 86 86 85 86 90 88
91 93 95 88 75 77 91 92 86 74 72 77 81 80 77 80 80 63 60 68 70 72 62 58 62 64 70 51 51 50 51 53 63 75 74 71 87 88 90 87 88 87 88 87
96 97 96 94 86 84 84 92 92 95 92 81 73 64 63 64 64 65 71 72 71 72 63 62 65 65 67 51 50 50 55 71 83 79 80 86 88 90 88 88 91 90 91 90
93 95 92 91 93 92 84 78 83 83 80 84 86 85 83 87 73 70 72 74 74 71 60 64 65 70 60 50 49 50 56 63 66 72 78 81 87 88 88 90 90 90 86 90
93 70 85 79 90 95 95 96 86 80 73 75 76 80 83 88 88 81 74 78 78 68 57 68 71 71 60 52 50 49 58 62 71 77 83 88 87 88 88 91 90 89 91 90

GFSNGP_sfc_rhum_066.txt.gz
RH
60 61 63 68 75 69 88 70 87 44 42 32 32 35 38 39 53 59 56 53 51 56 56 53 54 50 50 51 51 51 54 59 62 62 60 60 64 64 61 60 61 62 64 63
82 64 66 78 66 67 64 56 55 52 52 33 32 34 39 56 64 63 58 55 51 56 57 54 55 56 56 56 53 52 56 59 61 64 70 75 78 81 81 84 83 82 86 84
82 67 69 76 68 66 65 58 54 66 45 36 39 40 50 65 66 62 55 53 53 57 63 60 59 58 58 56 56 58 62 60 65 68 73 77 81 84 94 96 95 96 95 93
72 64 73 50 49 54 58 53 54 49 46 43 42 43 64 63 62 58 54 53 52 57 64 61 60 62 61 60 62 67 66 67 72 74 80 85 93 97 99 99 100 100 100 100
73 66 54 68 62 59 63 73 48 48 45 45 47 72 74 59 54 53 52 50 52 55 62 64 64 65 70 70 70 74 78 81 79 80 93 95 99 100 98 99 100 100 100 100
83 80 63 57 63 55 53 96 57 49 52 61 68 74 69 63 56 54 51 52 58 59 61 63 69 70 74 81 86 93 91 96 95 94 97 99 98 100 100 100 100 98 100 95
65 71 50 40 43 47 80 82 56 53 56 62 68 67 70 61 63 56 58 64 68 68 68 69 75 81 92 94 99 100 95 97 98 98 99 98 100 100 100 99 91 83 70 59
71 73 73 41 61 66 60 52 48 54 55 62 70 72 69 70 68 66 67 69 73 77 82 76 78 89 98 100 100 100 98 98 100 99 94 92 86 72 60 55 50 44 42 41
51 50 44 42 48 43 45 50 54 60 58 63 75 75 73 74 72 74 70 73 75 71 76 79 82 92 96 100 96 96 95 94 85 70 46 32 31 34 34 33 32 29 30 32
59 48 47 41 42 49 47 56 59 57 55 66 69 69 73 75 78 75 74 74 76 77 81 87 90 92 94 94 83 73 65 52 38 32 32 32 33 30 29 28 25 26 29 36
59 51 47 52 52 54 60 60 61 57 54 61 64 70 71 80 74 72 70 73 77 80 82 92 94 92 84 77 64 52 37 34 36 34 28 27 28 24 24 30 31 31 40 39
49 43 51 47 50 61 65 63 68 60 57 66 64 69 70 80 73 72 71 73 78 76 83 82 78 76 71 59 49 35 33 36 36 36 37 40 42 46 60 59 61 61 59 48
53 62 60 57 60 63 64 60 59 57 56 66 63 62 66 75 78 74 70 71 74 73 72 74 72 71 60 53 39 36 34 38 40 37 39 40 37 39 51 57 59 60 56 55
63 63 63 64 63 61 64 61 63 63 62 63 64 61 66 75 76 80 78 66 68 70 71 71 71 68 54 47 39 39 40 49 38 34 34 32 26 26 25 26 27 31 47 52
68 67 67 63 64 65 64 65 68 64 65 74 70 65 66 73 80 84 75 64 68 67 67 68 70 65 50 44 40 39 41 39 34 31 30 31 29 30 30 32 33 34 37 43
69 72 75 77 75 75 74 70 69 67 65 71 77 71 67 66 77 78 73 68 74 73 66 66 66 56 50 45 42 42 37 41 36 30 35 31 31 32 33 34 35 37 40 41
80 80 82 85 81 77 76 74 72 70 69 75 79 79 78 73 79 85 79 70 73 79 68 62 59 49 51 44 42 38 37 41 42 34 31 30 30 31 33 36 39 41 43 45
80 76 77 80 84 82 79 74 74 74 73 66 72 81 83 87 89 87 82 76 82 82 76 62 50 49 50 45 41 39 40 40 39 32 33 35 32 33 37 39 42 45 45 48
86 92 87 81 79 84 87 85 77 73 74 65 68 79 82 83 84 85 82 84 85 85 76 72 70 58 48 47 45 42 42 41 34 33 35 39 42 37 40 42 45 48 49 49
88 92 87 89 87 84 70 63 61 71 71 64 66 76 83 82 83 86 86 90 83 77 92 92 81 52 46 50 54 42 39 34 31 33 36 41 38 36 39 50 50 52 50 49
97 98 97 96 96 95 84 63 56 55 59 64 70 78 81 81 89 90 96 96 97 98 96 97 94 54 46 55 54 40 37 32 32 35 38 39 35 40 43 46 50 51 52 52
96 95 95 95 96 98 99 93 76 71 69 73 77 78 81 87 91 94 91 89 96 100 98 97 96 81 51 62 47 39 37 33 31 34 37 40 40 43 52 57 63 62 62 66
94 96 98 96 97 99 99 99 96 99 96 89 89 91 87 87 90 94 95 94 97 99 97 96 96 94 62 58 43 40 36 35 34 34 38 50 54 63 64 64 68 68 72 72
80 86 85 84 88 93 93 95 98 97 74 87 97 98 98 97 97 97 84 96 97 99 95 96 97 76 66 50 40 38 36 35 38 48 43 53 66 69 69 70 72 68 70 73
82 84 80 83 83 87 88 89 75 81 94 97 97 87 85 91 91 89 91 92 98 98 95 95 87 68 61 47 39 38 38 48 64 56 48 65 69 72 71 72 73 72 74 76
65 66 62 65 78 82 89 87 78 69 67 72 84 90 76 74 66 60 58 66 69 81 61 58 60 62 63 45 39 37 39 43 46 50 56 62 67 71 71 72 73 75 74 76
62 58 58 53 62 74 80 88 88 87 76 66 66 66 81 91 96 92 72 70 70 71 56 58 62 66 61 49 42 37 42 46 53 58 63 70 71 76 73 73 77 75 75 76

GFSNGP_sfc_rhum_069.txt.gz
RH
52 51 53 64 68 61 92 66 85 37 33 29 29 29 30 36 44 50 51 50 48 51 50 48 48 47 48 50 50 50 54 59 62 62 61 63 65 67 64 63 61 61 66 69
83 53 56 70 58 58 60 51 46 42 42 28 25 31 36 40 53 58 54 52 48 53 51 49 50 51 52 53 52 51 56 60 62 63 67 72 74 74 74 79 78 80 86 86
76 60 59 72 60 57 56 49 46 58 40 34 36 36 39 48 58 59 54 51 50 52 54 54 54 52 53 52 52 55 57 60 63 66 72 75 75 78 85 89 94 96 96 96
61 57 73 51 43 47 51 47 45 42 38 36 38 38 42 51 56 54 52 51 49 52 56 56 55 56 55 56 58 62 62 66 66 71 82 91 93 96 99 98 99 98 100 100
68 55 45 60 56 52 58 64 44 45 40 41 44 61 62 54 52 50 50 47 47 50 55 60 59 60 63 63 66 69 73 78 79 82 94 94 98 100 98 98 100 100 100 94
72 76 60 61 60 48 49 85 50 44 48 54 62 68 69 57 51 52 48 48 52 55 57 59 64 65 70 73 75 86 88 91 88 91 88 99 98 99 100 100 100 92 97 78
60 65 48 41 43 43 81 85 53 48 49 53 58 61 62 55 57 50 50 56 57 61 63 66 70 72 84 89 98 99 94 95 94 97 96 97 100 100 100 98 89 79 65 60
60 64 68 50 57 54 61 48 47 50 51 55 63 66 63 63 63 57 59 64 64 72 78 71 73 84 98 100 100 99 99 98 99 95 85 87 90 75 61 56 48 42 41 44
46 50 43 36 44 38 41 48 52 55 52 56 64 71 67 69 64 62 62 63 69 73 71 75 76 86 96 99 96 96 93 89 82 69 49 34 33 34 32 29 28 27 33 35
53 40 39 36 36 46 44 51 55 53 52 55 60 66 66 67 69 66 63 65 62 63 78 82 78 86 93 93 81 73 70 61 40 30 30 30 34 29 27 26 26 31 34 39
47 42 42 41 40 49 53 55 60 56 52 51 54 63 66 69 69 64 65 66 68 70 76 80 80 87 81 74 65 58 42 33 33 34 28 27 28 28 24 39 47 35 44 42
44 39 39 45 47 51 56 59 60 63 56 54 56 58 61 70 68 62 62 66 74 72 77 82 87 79 72 64 55 40 33 37 35 33 32 42 47 53 63 61 62 60 57 54
39 50 50 51 51 56 58 60 57 55 54 53 56 55 60 67 68 68 61 67 73 71 75 79 77 75 66 56 45 36 34 37 38 35 36 37 36 45 58 62 60 58 55 56
51 55 56 51 54 54 55 56 57 56 55 53 54 56 59 67 70 70 71 68 65 66 70 69 70 68 60 52 39 39 41 47 40 37 40 36 31 31 30 32 30 36 50 54
56 59 60 58 56 56 59 59 62 60 56 60 62 60 61 67 72 73 73 68 67 67 69 69 69 68 57 46 42 41 44 44 39 41 38 34 32 31 30 31 31 31 36 48
61 62 64 67 66 66 65 66 64 61 61 59 64 67 62 63 70 73 74 69 76 76 71 70 70 65 52 45 44 43 43 45 40 35 36 33 32 32 32 32 32 34 37 39
75 77 78 78 71 64 66 65 65 65 65 67 68 73 72 69 71 82 78 69 73 74 71 69 70 63 52 47 44 46 43 45 42 35 35 32 32 32 33 35 37 39 40 39
75 74 71 69 73 75 72 68 68 69 69 65 64 73 82 83 81 84 82 75 78 88 80 77 67 59 55 49 45 42 42 44 44 37 35 36 34 33 34 36 38 40 42 42
74 82 83 83 80 80 82 82 76 71 66 66 69 69 74 78 80 83 84 82 83 88 88 83 79 63 56 54 48 44 45 45 41 34 36 38 39 36 38 39 41 43 46 45
80 89 92 89 86 92 94 75 61 58 58 68 72 68 68 73 81 87 84 86 80 78 87 89 88 72 55 57 53 46 44 42 36 33 37 38 40 38 38 42 43 46 48 46
88 91 96 98 97 97 98 97 81 62 57 60 67 69 74 76 81 84 93 94 92 93 93 95 94 89 78 62 57 47 44 38 33 35 38 43 40 38 39 44 44 45 47 48
93 97 98 97 95 97 99 99 98 93 77 69 70 72 78 84 87 91 87 90 96 93 98 98 97 94 95 90 60 47 43 37 33 33 39 40 41 45 57 64 69 67 68 71
89 86 88 94 98 99 98 96 99 97 97 98 95 90 87 85 89 95 97 94 98 99 98 98 98 99 98 97 64 46 42 38 34 34 42 56 62 72 75 76 78 78 81 80
68 76 77 77 76 82 89 93 97 98 98 98 98 98 98 98 98 98 96 98 97 98 98 98 99 100 99 97 76 46 42 39 42 53 47 51 77 82 82 79 82 79 81 76
72 76 66 68 71 74 84 90 84 83 79 97 98 97 97 97 98 97 98 98 100 99 98 99 100 100 98 81 63 44 43 52 68 63 55 72 76 80 79 80 83 81 83 83
55 53 51 53 64 67 77 83 88 83 77 69 70 82 93 94 82 81 76 94 95 99 96 96 97 98 96 93 77 43 42 47 50 55 62 70 78 82 80 80 80 79 82 84
56 53 52 47 51 61 68 71 78 81 80 80 78 64 68 80 90 95 89 68 71 90 90 89 98 99 90 75 51 40 43 49 54 62 65 75 78 81 78 82 82 83 84 84

GFSNGP_sfc_rhum_072.txt.gz
RH
60 57 61 78 78 76 90 81 85 58 44 38 40 41 37 48 50 60 60 59 60 63 65 64 63 64 65 66 67 68 73 77 81 80 81 82 84 81 83 83 81 76 77 79
91 58 61 78 65 67 72 66 60 52 51 33 32 34 44 52 61 66 64 60 58 61 61 64 68 66 64 68 67 68 74 78 77 80 81 82 81 82 79 87 88 85 91 90
90 68 68 84 70 66 67 60 57 70 53 45 45 43 48 58 67 69 63 56 55 62 63 66 67 64 69 69 68 71 75 75 77 78 82 87 85 86 92 92 93 97 97 96
87 77 92 65 52 54 59 54 54 50 47 44 48 52 56 64 70 69 61 54 53 58 67 69 66 68 69 71 75 79 81 80 76 84 93 93 96 96 97 98 98 98 98 100
89 77 58 73 62 61 64 68 51 53 50 46 58 78 74 62 64 64 58 56 54 66 70 73 65 66 75 76 81 84 87 88 87 92 96 95 98 99 98 98 97 100 93 92
86 91 79 76 60 53 51 89 54 49 52 63 74 92 94 65 59 56 52 58 68 70 65 66 70 70 73 77 84 92 88 93 87 88 97 99 98 97 99 99 99 89 97 91
78 85 65 65 59 53 89 91 57 60 61 61 76 80 74 63 60 56 62 67 69 71 69 74 76 79 89 91 98 99 93 90 92 92 98 98 96 100 99 97 96 93 88 83
67 80 81 60 61 70 71 60 58 63 66 68 76 69 65 64 64 63 71 73 74 80 84 79 82 90 99 99 99 99 97 98 99 97 92 93 95 92 87 82 72 64 64 68
60 65 52 57 51 49 51 60 68 66 67 67 79 74 70 72 67 66 73 77 82 82 80 79 81 93 97 98 97 97 96 95 87 91 94 92 69 61 53 47 45 43 48 58
66 54 53 49 54 56 58 67 68 64 65 68 74 75 71 71 71 71 76 80 81 81 83 82 83 86 96 96 91 85 84 82 80 50 44 44 45 41 41 40 39 44 47 56
60 54 57 53 53 64 65 69 72 67 64 61 63 75 71 75 73 71 76 77 77 80 81 80 85 89 91 87 79 75 73 51 46 48 45 48 74 54 60 73 64 56 63 60
68 59 57 69 65 63 69 73 72 75 72 63 64 71 72 78 74 68 77 80 80 72 77 78 85 87 83 76 68 56 46 52 53 47 43 62 73 82 63 63 59 58 57 63
60 65 64 66 66 68 72 74 73 71 68 67 66 68 72 80 78 71 67 77 78 76 76 79 87 83 76 71 64 48 50 52 52 47 52 56 62 78 85 73 59 57 54 56
64 65 72 68 77 69 70 70 68 69 69 68 65 67 73 82 80 80 78 72 74 80 78 78 79 78 72 73 58 52 55 55 56 51 53 50 49 53 65 74 68 69 53 56
67 69 74 74 72 72 77 76 82 77 72 71 73 74 75 84 86 86 74 72 72 75 82 83 80 80 75 68 54 56 60 64 58 59 56 46 42 40 39 40 41 42 52 54
72 73 76 76 78 81 82 81 83 80 77 76 74 80 77 78 85 88 80 74 78 79 76 78 82 83 75 57 58 61 62 58 56 52 48 45 44 43 43 42 43 44 47 49
86 88 88 85 77 72 82 82 82 83 82 78 77 75 78 77 81 86 82 74 74 76 74 74 78 76 69 56 58 62 62 60 54 48 51 46 44 44 44 44 46 48 50 44
79 78 77 79 82 84 86 76 75 76 82 85 85 79 85 87 86 91 88 80 82 84 80 77 80 69 61 55 56 57 57 58 58 51 49 46 44 44 44 45 47 50 52 47
77 82 84 83 83 85 86 87 82 70 64 64 71 87 87 89 89 90 89 86 84 88 84 83 83 74 68 59 55 53 56 57 55 47 45 46 48 45 46 47 49 52 56 52
85 85 87 93 89 94 96 96 90 77 62 61 69 81 85 88 90 93 92 92 85 80 86 87 86 78 77 70 60 52 52 53 50 43 46 49 50 50 48 48 50 51 55 54
92 89 92 96 97 98 99 99 99 96 84 67 71 78 84 84 91 94 97 97 94 92 93 91 89 83 77 74 68 54 53 51 44 41 44 50 48 52 50 51 49 52 55 54
97 96 94 99 99 99 99 96 97 96 98 95 83 80 83 90 94 95 93 95 98 89 94 95 94 89 78 84 92 71 53 46 41 40 45 49 51 54 65 73 77 75 72 78
93 90 88 90 94 98 98 99 98 98 98 98 98 99 97 91 90 97 98 90 98 93 98 98 98 98 97 98 98 96 88 52 41 39 49 61 67 75 78 81 85 87 91 90
75 82 83 76 82 86 94 95 96 99 98 99 99 98 99 99 99 99 99 99 99 99 99 99 99 100 99 98 97 96 94 56 48 58 51 57 80 87 88 90 87 90 91 83
79 88 83 85 75 77 88 94 92 90 88 94 97 99 98 98 98 99 98 99 99 100 99 100 100 100 98 98 97 96 92 61 74 66 57 71 81 85 88 89 88 90 92 93
70 67 66 63 72 76 82 85 87 90 88 90 84 82 84 94 96 98 97 92 98 99 99 99 99 98 98 97 97 96 94 84 76 59 68 75 81 84 84 86 87 87 92 93
82 60 83 62 61 64 76 86 85 85 77 86 83 84 79 78 88 92 93 96 93 96 98 98 99 98 98 92 96 94 91 90 78 70 77 78 81 83 83 84 88 89 91 94

GFSNGP_sfc_rhum_075.txt.gz
RH
69 63 74 82 79 81 83 76 80 60 52 49 44 44 42 45 55 71 66 64 66 71 74 70 70 70 69 72 74 77 80 84 88 88 88 90 92 92 94 94 91 88 88 86
90 63 66 81 73 77 71 66 68 63 57 37 37 40 42 56 64 71 68 65 66 68 68 70 71 70 68 72 74 78 83 86 85 86 80 84 83 90 88 89 90 89 88 85
91 72 75 86 76 76 78 71 64 72 53 48 41 40 54 65 72 73 70 64 65 65 68 70 71 70 74 74 74 80 84 84 84 81 86 86 88 89 95 96 97 97 94 89
92 82 94 60 60 60 67 63 63 57 51 45 48 55 61 66 72 76 68 64 62 63 64 67 73 73 75 77 82 86 88 85 84 89 95 96 92 95 98 98 98 98 100 100
89 90 69 74 68 66 69 69 57 57 52 51 67 75 80 70 72 74 66 60 64 62 71 78 76 68 74 88 89 92 97 92 92 96 96 97 98 99 98 98 98 98 97 95
88 93 87 84 64 58 60 85 63 55 54 60 79 89 87 69 65 62 61 64 69 77 77 78 75 70 78 88 86 92 95 92 91 96 97 98 98 99 100 96 97 99 98 91
86 93 71 78 68 56 89 84 66 60 64 75 82 81 81 67 66 63 69 68 74 77 81 77 78 81 90 92 98 98 90 90 95 98 97 97 100 100 98 98 96 96 93 91
68 75 85 59 60 65 72 65 62 68 74 78 78 72 69 66 65 68 70 76 77 86 86 83 85 89 98 99 99 96 94 95 97 98 95 90 96 96 93 89 80 76 76 81
65 68 55 65 61 57 61 67 72 70 72 72 78 76 70 71 66 69 72 80 86 89 84 86 90 96 97 98 97 96 96 95 94 89 97 97 94 89 80 66 58 56 57 64
62 60 58 55 64 63 62 71 71 68 64 70 78 77 73 72 70 71 76 86 89 91 94 92 85 91 97 96 95 93 90 88 96 97 97 92 62 54 50 47 47 49 54 61
68 59 63 56 71 72 71 72 76 77 71 66 70 80 79 78 76 72 76 85 87 91 90 82 80 90 94 93 86 83 83 89 80 60 55 69 66 49 66 76 51 54 60 59
76 58 65 80 74 72 73 76 75 78 76 67 63 75 76 83 77 74 75 78 85 86 86 81 84 87 91 85 79 87 75 57 58 56 53 78 87 88 62 62 60 59 60 61
61 69 69 71 74 76 76 78 81 81 77 73 69 73 72 82 82 73 74 76 82 81 80 78 85 83 84 80 76 60 56 56 58 47 57 72 84 89 88 74 58 56 55 57
67 66 71 75 82 76 74 78 73 80 74 75 72 72 76 81 83 82 81 77 76 79 77 78 86 87 79 77 72 56 57 56 58 55 62 68 76 78 78 74 68 63 57 58
77 75 73 73 73 77 82 82 85 84 81 77 77 80 82 83 87 87 83 74 76 80 78 80 87 86 78 77 69 57 57 69 64 64 65 60 55 54 52 57 45 44 57 55
84 81 80 82 84 86 86 85 88 88 87 84 83 79 84 85 86 87 84 76 82 85 81 82 81 80 82 82 71 62 62 62 62 63 60 54 45 43 44 44 44 45 48 49
84 88 89 88 85 80 80 82 88 89 90 90 90 87 81 83 84 88 84 77 77 77 77 80 83 81 83 77 65 60 63 70 64 59 54 50 46 45 46 46 47 48 49 45
79 80 83 89 88 88 85 81 85 82 80 78 77 86 90 84 88 91 89 84 84 87 81 77 78 82 77 66 59 58 58 59 64 55 53 50 46 46 47 46 47 49 51 48
80 85 87 87 91 93 92 91 90 82 73 66 69 76 82 90 90 90 92 90 88 89 83 86 85 81 74 65 61 56 55 56 57 52 49 49 48 45 47 48 49 50 53 51
92 89 87 90 90 96 98 97 96 96 85 74 68 68 74 88 89 92 94 94 89 86 85 89 88 81 74 69 72 59 54 53 53 49 48 48 47 46 44 47 48 48 51 51
89 87 93 95 97 97 99 98 96 95 94 96 90 77 83 86 91 93 99 99 95 91 93 90 90 84 81 77 81 64 54 53 50 49 46 46 45 47 46 47 46 48 50 54
100 97 92 93 92 93 94 98 97 97 96 96 97 97 91 87 92 96 94 96 97 88 96 96 93 87 85 85 87 70 65 70 57 48 48 47 48 51 58 63 65 62 63 72
93 87 87 87 93 94 94 96 95 98 98 98 98 97 97 98 98 96 96 92 98 96 99 98 94 91 89 94 98 96 97 97 95 84 55 58 62 80 77 77 76 74 83 84
75 80 81 71 74 79 87 95 95 96 97 97 99 99 98 97 96 99 99 98 99 99 99 99 99 98 98 98 98 98 97 97 97 97 90 62 87 84 83 80 78 81 82 76
75 86 85 84 72 74 87 92 92 94 95 95 92 92 96 98 98 98 98 98 98 99 99 100 100 99 98 98 98 98 97 97 97 96 92 82 94 87 84 80 80 81 84 86
67 64 67 65 68 71 78 87 91 89 80 79 89 90 89 89 90 92 97 97 98 98 99 99 100 99 99 99 98 98 97 97 97 96 94 96 96 84 81 83 84 84 85 85
84 65 86 62 65 66 70 82 89 90 78 76 82 85 89 84 80 81 86 95 96 98 99 99 99 100 99 98 97 96 97 96 96 96 96 96 92 81 83 80 83 85 86 86

GFSNGP_sfc_rhum_078.txt.gz
RH
72 75 77 78 81 83 81 70 82 61 59 50 49 54 53 59 72 76 73 78 74 75 75 72 75 73 76 80 84 83 86 89 92 91 90 93 95 94 94 94 95 94 94 94
88 69 74 82 78 80 72 65 68 68 63 41 43 42 44 52 63 76 72 71 71 71 74 75 78 75 74 81 84 84 88 90 87 82 81 86 88 88 87 90 90 85 82 88
91 80 78 85 77 84 81 71 62 71 54 49 45 42 44 53 58 68 73 69 69 70 70 71 74 73 76 77 80 86 88 88 85 82 85 87 87 89 93 95 95 97 97 94
92 84 97 56 67 64 71 68 65 59 54 50 45 48 55 68 64 74 75 69 70 71 72 70 70 71 76 80 85 88 91 91 84 87 93 91 96 97 99 97 99 99 100 100
91 92 67 72 71 74 76 74 64 63 56 64 66 71 78 70 78 77 74 68 68 67 71 71 76 76 80 80 87 94 96 92 90 95 97 96 98 98 98 98 99 99 95 94
92 93 88 76 71 63 69 90 68 60 58 71 80 80 73 72 73 73 66 67 69 69 74 79 82 80 82 84 91 96 93 93 93 96 97 98 98 99 100 98 99 97 97 91
88 93 78 64 77 68 89 76 69 62 62 77 80 72 80 69 68 69 72 76 78 77 84 84 81 81 87 88 97 97 91 93 97 97 98 97 100 98 94 99 98 98 93 91
83 79 83 66 64 71 70 67 68 74 76 76 82 76 72 69 70 73 75 76 80 88 90 89 84 86 94 99 99 96 92 97 98 96 90 92 95 98 96 94 92 91 91 90
69 69 53 63 64 60 64 68 74 67 74 75 78 77 72 72 68 70 72 74 80 91 94 91 89 88 97 98 94 93 92 94 96 93 86 86 97 95 93 80 75 75 72 78
66 62 61 65 65 64 62 72 76 69 67 73 76 77 73 72 70 72 73 77 86 92 95 97 95 93 94 95 90 93 89 88 89 95 97 98 89 82 71 66 58 53 57 64
71 65 63 62 70 72 75 74 74 76 73 70 73 78 78 79 76 74 75 80 87 92 95 95 94 96 97 94 91 92 90 92 94 97 96 90 66 60 54 55 51 53 58 61
76 61 63 74 80 73 74 77 76 77 78 72 68 70 79 82 81 79 80 86 87 92 91 93 89 88 92 90 86 86 89 95 94 78 67 75 67 82 62 66 56 53 56 61
60 68 71 75 76 80 78 80 80 81 82 82 74 78 86 86 83 79 80 80 80 86 85 88 84 88 88 86 83 85 83 76 66 57 67 82 86 86 89 74 59 58 58 59
68 69 80 81 81 79 77 78 75 82 80 79 81 78 84 85 86 84 84 78 76 78 81 83 83 82 82 85 84 79 82 65 60 54 57 70 79 84 82 80 74 66 61 59
81 79 75 78 78 83 84 82 86 86 87 84 82 85 87 87 88 85 82 82 78 81 81 79 84 82 82 83 85 72 70 71 62 61 60 63 72 78 78 76 70 54 60 59
87 84 83 84 86 87 86 87 89 88 89 89 90 89 88 88 90 89 85 78 81 84 81 80 81 81 87 84 86 74 61 61 62 58 60 71 63 63 61 56 52 45 49 50
86 89 90 91 88 89 90 85 83 86 90 90 90 91 92 92 90 92 87 80 77 78 78 78 80 80 84 88 85 75 63 66 65 60 59 62 53 48 46 46 47 48 48 44
85 84 85 84 88 88 86 84 84 85 85 81 72 71 82 88 92 91 92 88 86 87 82 79 79 82 83 81 79 72 64 61 67 62 55 55 50 45 44 45 47 48 48 47
84 86 87 88 91 91 90 90 93 93 88 80 73 72 78 83 88 89 91 94 93 93 86 87 85 87 86 83 79 73 67 60 58 61 52 51 52 46 45 46 46 47 50 47
93 92 89 90 91 96 98 97 94 94 87 88 90 79 73 78 84 92 94 96 92 91 86 90 90 88 87 84 80 72 67 61 56 54 52 48 49 50 44 46 44 43 45 46
90 89 93 94 95 92 92 90 92 90 88 88 93 94 94 86 86 95 99 99 95 94 94 92 94 92 88 82 83 78 69 63 56 54 52 51 47 48 47 44 44 45 43 45
99 95 92 91 93 94 93 89 96 97 96 95 94 95 95 96 95 92 94 98 96 90 94 98 97 92 91 82 86 87 75 66 70 75 60 52 50 50 56 60 61 58 57 63
95 87 84 82 84 95 92 91 93 96 98 97 97 98 97 96 97 98 96 96 99 98 98 99 95 91 88 88 91 90 81 78 94 96 96 95 80 70 76 82 82 79 80 76
75 74 80 67 72 72 83 91 94 95 96 94 96 98 99 96 94 99 99 96 96 98 99 99 98 96 94 98 98 98 98 98 97 97 97 96 97 96 96 90 89 84 82 72
73 85 85 84 66 70 84 91 88 89 90 90 93 93 95 93 99 92 97 98 97 98 99 100 100 99 99 99 99 99 98 98 98 98 97 97 96 96 95 96 95 83 80 78
62 59 64 67 67 69 72 81 92 86 82 74 77 87 87 90 88 87 94 88 97 97 99 98 99 100 100 99 99 99 98 98 98 98 96 96 97 96 96 96 96 78 77 83
80 69 86 63 64 67 70 78 90 92 82 73 76 81 85 87 88 86 83 89 93 93 96 98 99 98 99 99 99 98 98 98 97 97 96 96 96 95 96 96 86 77 83 85

GFSNGP_sfc_rhum_084.txt.gz
RH
78 77 90 92 93 92 90 80 85 82 74 58 50 51 69 82 89 88 91 92 90 89 88 80 81 78 83 88 88 88 91 92 96 97 97 96 96 96 96 96 96 95 95 95
88 82 84 85 87 92 87 78 88 78 76 56 51 73 74 83 88 84 84 88 88 86 87 83 81 82 82 90 88 89 94 96 94 96 95 94 91 91 93 95 94 93 93 89
81 81 77 74 76 87 88 87 82 91 66 59 57 54 61 70 85 78 81 83 85 81 81 80 80 79 84 91 91 93 94 95 92 84 86 87 86 89 93 97 96 97 93 87
95 83 82 53 74 70 76 78 75 72 61 53 52 52 51 61 67 79 79 77 82 81 83 78 79 79 86 88 92 95 96 95 91 89 89 90 92 95 99 99 99 99 100 100
93 93 69 70 80 79 80 69 68 69 62 57 69 73 61 54 56 65 70 76 74 77 79 78 74 76 86 94 94 94 96 94 94 89 94 95 98 99 97 99 100 100 95 92
94 92 80 69 79 73 73 84 75 70 65 62 75 76 68 77 77 80 79 72 78 81 79 79 82 79 84 92 90 96 94 92 92 92 96 98 98 99 100 97 96 89 94 92
80 91 81 64 71 75 88 72 75 74 72 72 80 67 74 77 72 76 77 80 81 80 79 80 82 82 86 90 95 94 92 94 96 95 98 98 100 100 98 95 92 96 92 93
83 91 88 60 77 81 66 71 74 81 76 76 83 85 83 76 76 76 81 84 84 89 90 90 89 88 93 95 96 96 95 97 98 98 96 96 97 95 93 94 94 94 93 93
77 78 57 58 73 72 67 68 76 71 83 79 82 84 83 79 78 76 79 82 84 89 92 93 92 91 94 95 94 94 96 97 97 93 92 89 89 94 99 96 94 94 83 89
70 68 65 61 73 74 76 72 78 80 80 75 76 76 73 72 76 74 78 84 86 89 90 93 94 93 91 94 89 91 95 96 93 93 94 89 87 92 97 96 93 81 76 78
75 68 68 64 73 77 81 74 78 80 79 74 75 75 74 77 74 74 78 81 85 83 89 88 96 96 95 89 87 90 91 94 93 90 93 93 94 96 94 87 73 68 66 61
74 63 63 64 76 81 82 84 82 79 79 74 74 77 78 83 83 79 79 82 86 83 85 91 96 95 91 90 88 88 91 95 97 93 96 96 97 91 77 68 63 60 53 57
61 66 73 85 85 83 80 81 81 79 79 81 82 80 86 87 87 84 83 84 86 80 80 84 88 97 90 86 87 90 90 93 93 93 96 97 95 78 74 77 63 64 60 57
64 80 84 85 85 83 82 82 80 86 86 87 87 88 90 91 89 90 90 87 86 82 81 81 84 88 92 89 91 93 95 92 92 91 89 93 85 70 76 86 88 86 71 68
77 84 81 87 86 87 87 84 86 89 89 89 90 92 93 93 93 94 92 88 82 85 82 84 84 84 85 91 92 94 94 94 93 91 86 85 75 74 76 80 81 72 66 62
89 87 87 88 90 88 87 87 89 90 90 92 91 91 92 92 91 91 91 92 91 87 82 86 84 80 85 87 93 95 91 86 84 79 75 75 74 74 77 77 79 73 63 55
89 90 91 92 89 90 93 92 92 93 92 90 88 84 82 87 88 87 86 87 94 93 84 83 81 82 83 88 92 94 90 90 84 73 68 64 64 66 66 70 70 70 65 58
91 90 86 85 91 88 90 93 91 91 92 90 88 86 87 89 89 88 88 91 92 92 92 84 81 86 84 85 91 92 92 88 88 82 72 62 60 58 60 62 62 64 64 54
84 88 89 90 90 92 96 96 90 85 84 86 88 91 90 87 84 85 86 93 95 96 91 90 88 89 91 90 89 91 95 88 83 82 74 69 66 60 58 56 54 54 54 47
92 88 86 91 89 91 93 88 91 93 92 93 87 85 87 87 88 91 90 96 96 98 97 95 94 94 93 92 90 93 94 89 84 78 76 69 64 62 59 56 53 50 48 44
98 87 89 90 91 89 86 84 88 89 97 96 97 94 95 90 92 94 96 98 97 98 98 95 96 97 96 94 92 96 93 89 85 81 78 78 73 79 65 56 52 50 46 44
100 99 97 81 73 86 95 92 92 96 96 96 96 97 98 97 96 94 97 99 97 96 97 98 99 97 98 92 98 97 96 92 88 88 92 92 95 93 92 83 87 72 55 55
99 96 81 81 84 92 89 91 92 97 98 95 96 97 93 97 98 97 96 93 91 91 93 95 96 98 98 98 99 98 98 98 98 98 95 92 90 94 96 96 96 96 91 69
88 70 72 66 62 65 78 88 92 93 96 90 89 96 99 98 94 98 98 88 84 83 88 94 93 94 98 99 99 99 98 98 98 98 98 97 98 98 97 96 97 97 96 95
71 79 78 78 59 58 77 87 81 88 91 94 88 87 93 96 99 93 95 93 88 89 95 88 86 94 98 99 99 99 99 99 99 99 98 98 97 97 97 98 98 97 97 97
61 57 57 56 60 65 68 67 71 84 87 88 74 75 86 84 90 88 91 81 90 87 96 96 92 90 95 96 98 99 99 99 99 98 99 98 98 98 98 98 98 97 98 97
87 79 85 72 58 60 67 67 82 80 84 92 83 81 79 77 84 80 76 81 85 88 93 92 97 93 92 92 93 95 98 98 98 99 99 99 98 98 98 98 98 98 98 98

GFSNGP_sfc_rhum_087.txt.gz
RH
78 74 88 88 91 92 91 80 84 67 70 50 52 51 47 60 82 84 86 86 82 80 76 73 72 73 77 77 75 74 77 80 82 83 83 83 83 84 83 81 81 81 81 82
86 80 80 84 85 89 87 82 81 80 79 55 49 51 58 68 85 85 83 83 82 80 77 73 70 71 78 79 79 78 81 84 86 85 83 84 84 84 82 83 82 81 82 83
84 78 73 70 73 88 88 86 75 85 62 54 56 53 52 63 83 79 78 79 81 78 76 72 69 68 77 80 79 81 83 85 85 83 84 83 82 83 86 88 86 86 86 83
91 78 80 50 70 71 81 80 81 78 70 59 56 49 48 55 69 78 76 78 78 76 76 72 69 70 75 82 83 86 86 87 83 83 84 85 88 93 98 97 98 99 100 100
86 87 63 67 75 76 75 66 67 74 69 63 59 64 58 52 60 66 74 73 72 74 74 73 69 68 76 84 86 88 88 89 87 85 88 89 97 99 98 99 100 100 98 96
89 89 73 59 76 66 67 78 66 69 68 69 68 72 66 69 67 65 63 66 73 78 76 72 72 72 79 84 86 88 86 86 84 87 90 97 96 99 100 98 98 88 91 83
77 81 75 62 61 70 81 70 74 72 69 69 71 63 71 72 71 71 74 73 76 78 78 78 78 76 83 86 92 89 87 88 90 91 96 97 100 100 99 96 91 89 83 81
86 88 85 56 78 80 64 67 72 77 71 72 80 81 76 73 74 74 77 78 81 83 85 84 81 79 87 92 92 92 91 93 97 97 95 96 97 95 91 86 82 79 78 77
76 75 58 56 70 67 63 69 72 70 79 76 78 80 77 75 74 73 76 78 81 84 86 85 84 82 87 88 90 92 92 96 97 95 94 93 93 91 89 81 75 77 74 74
72 65 64 61 62 69 74 71 72 78 77 76 76 75 74 72 70 73 74 76 81 85 88 89 87 84 79 88 88 89 91 96 96 94 95 90 86 86 88 82 76 71 69 69
76 68 65 62 65 72 80 73 73 77 76 76 77 77 75 76 75 72 74 76 80 83 83 81 85 87 86 88 84 88 90 94 95 93 93 91 88 86 83 76 71 70 67 61
71 65 67 66 73 79 78 81 79 76 77 77 76 80 81 84 83 79 77 77 80 81 77 80 85 88 89 88 85 86 90 96 94 92 93 91 91 94 85 78 77 68 60 57
66 69 67 79 86 81 79 80 78 80 80 82 84 86 86 87 87 85 84 81 82 80 79 78 82 89 88 87 87 87 87 93 94 92 94 94 91 88 88 80 73 66 66 61
72 72 81 86 85 86 81 83 82 87 87 88 85 86 85 88 89 90 92 89 85 83 82 79 82 86 87 85 86 88 89 89 93 93 93 94 94 86 72 66 73 76 71 65
85 84 83 88 87 88 87 83 87 89 89 89 89 91 92 93 92 92 89 91 88 85 81 82 84 84 84 86 91 94 96 95 93 93 91 89 89 81 69 63 68 67 66 67
89 89 88 89 90 88 87 87 89 92 92 92 92 91 89 88 90 88 86 86 94 93 83 82 84 82 84 87 93 95 96 93 95 92 89 89 84 80 70 64 65 65 60 53
91 91 92 93 89 92 94 94 95 96 95 96 94 88 85 82 81 83 85 84 87 89 92 85 83 82 84 87 93 94 95 94 92 88 84 85 81 78 70 64 62 61 59 55
92 92 93 88 92 91 94 94 90 88 90 86 83 86 91 95 96 91 88 87 89 90 88 85 85 83 85 85 89 91 96 94 95 94 92 81 74 71 64 61 59 59 57 59
89 93 92 95 92 94 92 87 87 84 85 90 91 89 86 87 89 90 90 91 89 98 97 95 94 92 89 87 89 90 96 94 93 98 95 97 94 73 62 58 56 55 55 55
99 98 92 89 88 89 89 85 86 92 95 95 94 90 94 91 88 90 91 96 98 98 98 97 94 94 95 93 88 92 96 95 92 89 89 95 97 95 76 69 58 54 52 51
98 94 80 78 85 90 92 91 90 94 96 94 96 91 96 97 95 95 94 98 97 94 94 96 98 98 98 96 96 96 98 97 94 92 91 97 95 95 94 89 88 70 55 50
100 99 98 90 68 82 87 82 84 93 92 88 89 91 85 88 92 89 90 98 94 83 87 93 97 97 96 97 99 99 98 98 98 98 98 98 98 98 97 97 96 96 96 93
99 98 88 85 79 88 86 85 88 95 96 94 90 93 96 96 93 95 87 91 92 89 80 84 84 86 85 97 99 99 98 98 98 98 98 98 98 98 98 98 97 97 97 96
98 80 64 68 59 66 77 85 88 90 96 93 90 90 96 94 90 95 95 87 83 82 89 89 81 82 83 97 98 98 98 99 99 99 99 100 99 98 98 98 98 97 97 97
99 82 81 81 61 52 71 79 73 81 88 93 90 85 94 94 96 90 95 90 83 83 96 89 83 82 85 90 95 96 98 98 99 99 98 98 98 98 98 98 97 96 96 95
72 63 59 57 57 59 63 66 62 65 75 81 78 73 86 85 86 87 90 77 84 78 94 93 95 87 96 96 89 94 92 94 98 99 99 98 98 98 98 97 97 97 97 97
91 74 93 90 75 64 64 64 68 73 69 82 87 81 86 76 79 83 78 79 82 83 89 91 93 88 87 93 93 96 97 93 91 94 97 98 98 98 98 98 98 97 97 97

GFSNGP_sfc_rhum_090.txt.gz
RH
66 63 65 71 74 73 94 68 85 46 52 33 28 32 32 37 47 52 58 60 58 54 51 51 53 53 54 54 55 55 58 60 62 63 63 63 64 64 62 61 62 64 65 68
78 63 65 70 68 68 66 60 57 55 52 38 33 31 33 33 49 54 56 59 56 55 51 50 50 50 54 56 58 58 59 62 65 65 66 68 67 68 66 67 67 66 70 72
78 63 57 59 52 66 67 64 57 70 48 39 40 39 38 35 45 52 51 53 57 54 53 51 49 49 52 53 54 58 60 62 66 66 68 69 69 70 72 74 73 76 77 77
64 57 52 43 48 53 57 57 59 55 52 44 42 39 36 32 35 41 49 50 52 52 52 51 48 49 48 53 57 64 62 64 65 67 69 72 76 82 90 87 89 93 100 99
63 54 48 59 58 55 56 55 51 53 49 47 47 46 46 37 36 35 42 45 47 48 50 51 51 49 52 58 62 68 66 69 70 68 73 76 86 94 94 98 100 100 99 94
69 67 52 53 53 49 50 66 54 54 50 51 52 57 40 51 52 43 45 50 52 53 54 54 52 50 54 58 62 68 67 68 66 74 77 83 86 97 100 99 100 93 96 88
60 64 48 44 51 52 65 65 55 59 54 54 53 47 58 54 56 56 59 59 57 58 58 58 57 58 62 62 74 73 70 72 74 78 83 87 99 100 100 98 94 91 81 68
63 64 66 42 57 62 52 54 59 61 52 55 58 61 59 59 60 61 62 62 64 64 69 66 65 64 71 78 78 77 73 78 81 84 86 92 97 97 93 88 82 75 63 61
49 44 42 40 51 47 49 55 57 58 60 55 61 62 61 59 58 59 60 60 61 63 65 65 66 65 74 72 72 72 76 78 82 84 89 91 91 92 89 80 74 68 60 59
53 46 45 43 42 44 51 56 58 59 57 60 60 58 58 56 56 56 57 58 61 62 64 65 64 63 57 64 66 69 70 74 81 90 94 92 88 85 86 83 76 66 58 56
51 47 44 46 49 48 58 64 60 60 59 61 62 65 61 67 68 65 63 62 64 60 60 60 63 65 65 62 66 70 70 77 88 88 92 91 87 86 84 78 73 63 53 50
48 49 50 46 57 58 60 64 63 61 63 64 60 65 63 67 67 66 64 63 65 71 67 61 69 72 74 75 72 69 73 82 88 90 90 89 92 92 86 82 79 66 60 54
55 50 50 50 64 64 65 65 64 64 64 67 68 67 69 70 72 75 70 68 67 64 61 59 65 74 76 82 79 75 73 78 83 87 90 92 96 93 95 86 79 76 74 65
58 63 58 64 64 68 66 70 71 69 70 71 70 70 72 74 74 73 74 75 75 71 68 65 67 72 80 82 83 85 82 84 83 84 86 92 96 90 86 77 76 72 71 68
66 66 66 69 70 73 70 69 73 72 72 73 71 73 72 74 74 74 70 69 72 73 70 70 71 78 77 85 87 89 90 91 87 89 89 91 97 94 82 70 59 54 58 66
78 72 72 74 77 75 73 73 73 78 77 79 78 77 75 72 72 69 67 66 69 69 68 75 75 74 75 83 91 91 90 92 93 97 96 94 92 93 88 80 64 55 52 51
88 78 81 84 79 77 78 77 78 82 82 82 80 76 75 76 75 74 72 70 70 69 69 72 75 75 78 82 86 92 96 96 95 98 98 97 90 86 84 82 71 59 51 46
80 80 81 77 74 78 83 82 78 79 80 77 74 74 77 79 82 83 85 84 83 82 84 80 81 84 79 80 82 87 88 93 95 98 98 99 97 96 86 80 71 62 52 48
89 94 89 85 82 82 78 77 80 77 76 76 76 79 76 76 79 80 82 87 94 96 95 87 94 86 84 83 83 86 95 95 94 94 96 94 98 97 96 94 76 63 55 49
99 99 98 96 87 79 77 71 68 70 75 75 74 72 75 76 76 75 82 94 91 90 89 91 92 95 96 96 92 91 92 94 93 91 97 97 96 95 95 96 95 94 80 55
99 95 89 65 69 75 76 63 61 67 75 72 70 72 78 75 71 77 83 91 81 84 84 86 90 93 95 96 97 99 99 98 98 98 98 97 97 97 97 95 97 97 96 95
100 100 98 96 78 83 78 62 61 68 68 62 62 70 69 67 66 73 76 84 72 79 74 75 80 80 83 82 96 98 98 98 98 98 98 98 98 98 97 97 97 95 96 97
100 100 89 83 75 76 78 73 67 70 74 72 70 67 70 68 62 71 61 62 69 72 73 74 77 78 80 82 89 94 98 97 98 98 98 98 98 98 98 98 97 97 97 96
99 97 91 66 56 60 60 68 72 70 74 78 80 73 75 70 63 72 68 71 73 71 70 74 77 77 76 80 84 85 85 88 96 98 98 98 99 98 98 98 98 98 98 97
99 98 97 72 57 49 56 61 60 60 68 72 76 67 71 72 71 62 70 69 71 68 67 70 76 78 73 75 77 80 82 85 88 89 95 98 98 98 98 98 98 98 98 97
87 78 61 53 52 50 47 49 47 43 48 52 53 57 59 67 61 60 62 64 62 65 65 67 71 70 70 72 74 75 75 76 79 82 84 87 96 98 98 98 98 97 97 98
80 75 65 60 71 70 58 50 48 45 52 54 56 56 66 67 58 61 65 59 58 60 62 62 67 70 70 71 72 73 75 76 80 81 81 85 86 91 92 96 98 98 98 98

GFSNGP_sfc_rhum_096.txt.gz
RH
63 59 66 77 83 73 87 76 84 60 51 42 42 44 40 42 45 53 59 60 61 63 66 68 70 68 67 69 69 69 71 74 76 75 74 74 74 73 73 73 73 74 74 78
87 58 62 78 68 66 68 63 61 59 64 46 42 39 42 50 44 50 57 59 59 59 63 68 72 69 66 70 70 70 74 76 75 76 76 79 79 79 80 80 79 78 82 84
94 65 62 82 68 68 67 63 63 75 60 54 51 44 47 48 45 47 52 60 60 61 62 63 66 66 71 71 69 71 73 74 74 74 78 81 79 81 85 88 87 92 93 88
81 73 84 60 47 54 60 54 56 54 53 52 52 48 49 48 49 44 50 54 60 62 62 62 63 65 66 68 71 74 74 74 73 75 79 82 85 90 92 92 91 97 100 96
84 65 64 68 62 60 67 67 56 60 56 52 52 60 63 54 54 53 47 50 58 60 63 64 62 62 66 72 74 77 75 78 77 76 83 86 93 93 92 96 100 100 100 97
82 84 72 71 59 51 56 85 60 62 63 60 60 83 81 63 62 64 58 65 65 62 63 66 65 64 69 74 77 82 77 78 77 80 85 89 93 95 100 99 100 100 100 96
78 82 64 56 56 57 88 92 68 67 62 60 75 75 69 65 66 66 70 71 68 71 72 71 68 68 73 76 81 81 77 79 83 86 89 91 96 100 100 100 100 100 98 93
73 80 80 56 66 75 62 66 66 71 63 64 69 68 68 67 69 71 72 75 79 84 85 80 77 76 82 84 86 84 83 85 88 91 90 94 97 99 99 98 98 96 91 88
64 66 50 49 51 48 49 53 71 69 67 66 69 71 67 69 69 69 69 71 72 80 81 81 81 80 86 89 88 88 88 90 92 92 89 85 95 97 99 95 94 92 88 86
58 57 54 55 54 54 55 72 71 68 68 68 72 72 75 74 74 73 71 72 71 72 77 82 81 74 80 84 84 85 89 91 92 93 88 87 93 92 94 94 92 88 86 84
60 58 64 60 59 64 64 67 68 66 68 77 75 70 69 74 71 75 73 72 73 75 74 75 75 75 75 75 74 80 80 77 83 86 86 91 94 91 90 85 86 88 89 87
92 63 63 61 58 67 68 73 75 70 74 73 69 71 71 79 79 78 80 76 78 76 77 78 77 77 71 70 71 74 74 79 87 90 88 96 96 96 85 86 84 84 82 82
66 64 67 65 63 72 73 71 70 70 71 76 74 74 78 81 81 76 79 82 86 88 84 80 76 78 82 83 78 80 80 80 86 89 90 96 95 98 99 97 93 92 92 90
68 69 70 70 79 75 73 74 72 77 75 73 75 73 76 80 79 79 82 79 76 78 84 83 83 83 79 82 86 86 87 85 93 89 92 93 94 98 98 97 98 98 96 96
76 75 76 72 71 82 78 74 78 81 76 74 73 78 80 82 84 82 78 74 74 76 76 76 81 87 80 82 90 89 91 94 96 97 97 96 97 99 99 99 98 99 99 95
82 79 78 82 81 84 85 84 82 81 81 82 82 81 80 79 81 81 79 80 86 86 79 83 87 87 86 88 89 93 94 92 92 98 98 99 99 99 99 99 98 98 99 90
97 89 88 88 84 76 81 76 77 80 82 81 80 78 78 80 80 84 84 84 86 86 85 84 87 85 84 83 88 93 96 97 92 98 99 99 98 99 99 99 98 98 96 98
91 94 86 90 94 89 79 76 76 76 81 78 75 76 78 82 88 88 88 88 85 89 85 84 86 88 85 87 94 93 95 98 98 98 99 99 98 98 98 98 96 97 98 99
92 97 99 98 99 97 97 98 97 78 68 70 71 74 74 76 80 79 84 83 83 91 91 89 83 86 88 88 92 96 99 98 98 99 98 98 99 99 98 98 98 97 98 98
90 91 86 94 95 98 97 98 95 81 64 68 65 60 65 68 73 75 82 92 89 92 87 88 76 80 80 81 80 86 97 99 98 98 99 99 98 98 98 98 98 98 98 98
92 87 88 87 94 82 70 64 60 70 78 67 61 61 68 67 69 72 84 96 88 80 79 79 90 88 85 74 76 79 88 97 98 98 99 99 99 98 99 98 98 98 98 98
94 90 90 96 98 99 98 87 74 77 85 88 79 66 67 71 72 76 74 92 94 66 85 93 95 79 82 75 92 88 80 81 84 90 97 98 98 98 98 98 98 98 98 98
98 96 91 97 97 98 97 98 98 97 89 83 80 78 75 74 78 79 75 77 91 78 87 93 75 70 70 93 95 96 95 90 80 78 84 87 94 97 98 98 98 98 98 98
97 96 93 94 96 100 98 94 90 87 79 83 87 88 90 86 87 91 93 70 65 70 80 78 75 67 68 96 95 95 96 95 84 81 79 77 81 86 83 93 96 98 98 98
95 99 99 99 99 97 96 93 82 78 79 82 83 85 89 88 90 94 91 84 69 72 84 69 64 65 84 92 93 94 95 95 97 89 80 80 80 81 83 85 85 91 92 96
91 91 90 93 96 95 79 62 60 58 50 49 53 63 69 74 81 80 81 69 80 72 85 84 85 85 92 94 93 93 92 93 89 95 90 95 95 82 80 80 80 84 81 88
94 80 96 91 84 73 73 74 75 70 56 54 56 54 60 68 75 75 68 68 69 72 75 76 83 78 84 88 91 92 93 94 82 90 96 95 94 89 82 80 81 81 84 81

GFSNGP_sfc_rhum_099.txt.gz
RH
85 72 76 82 84 82 88 74 86 76 56 54 49 48 50 52 59 62 63 64 64 70 77 81 81 82 80 79 78 77 79 81 82 81 81 81 80 79 80 80 76 81 83 85
90 64 71 87 80 80 76 70 70 62 68 59 51 47 44 50 52 61 64 62 63 66 75 82 83 82 77 79 78 78 80 82 80 80 82 84 84 85 85 85 85 86 90 89
98 69 63 83 73 75 71 65 64 79 67 58 54 48 50 50 47 52 61 63 64 68 72 77 78 75 79 79 79 80 82 81 80 81 84 86 85 87 90 90 92 94 95 90
90 75 83 62 53 59 65 60 59 59 60 58 58 56 63 60 52 50 50 62 64 67 70 73 75 76 78 77 79 82 82 82 81 83 86 88 89 92 93 93 93 96 100 99
87 84 68 73 65 64 67 75 62 67 66 62 60 67 76 66 65 62 58 68 64 65 68 71 73 75 75 80 82 84 83 84 83 84 89 91 93 95 94 95 100 100 96 98
90 87 77 77 65 60 61 92 76 70 65 62 65 82 81 70 68 72 74 73 76 69 68 70 72 74 75 81 84 85 83 83 82 86 90 92 94 95 100 97 100 99 100 97
86 89 70 65 66 63 78 82 69 68 66 71 79 77 73 73 75 74 78 82 82 82 81 74 72 74 80 84 86 84 83 84 86 89 91 92 96 100 100 100 100 100 99 95
84 82 81 62 67 81 72 69 70 73 69 78 76 74 74 74 77 77 77 78 83 87 88 86 81 78 84 86 84 87 87 88 91 92 92 94 97 98 99 99 99 98 97 96
74 77 53 51 55 55 51 56 80 73 79 72 77 78 74 76 75 75 76 78 80 85 85 88 86 85 87 88 90 90 90 92 93 94 95 96 96 96 98 98 98 97 96 95
64 70 72 70 68 67 68 76 76 75 72 72 76 78 84 81 81 79 76 76 78 81 84 85 84 80 86 91 90 91 92 94 95 96 94 90 95 94 96 97 97 96 94 92
82 76 73 61 68 75 72 73 74 75 81 81 80 80 76 80 76 76 78 78 80 82 83 82 80 80 86 87 89 92 92 90 89 89 90 92 93 92 93 88 91 93 91 89
96 86 83 71 66 73 76 77 78 79 81 81 75 79 80 87 85 85 88 88 89 89 88 86 82 82 81 80 83 83 83 82 88 91 90 96 96 96 86 87 85 85 83 89
73 72 69 67 77 75 77 76 76 81 81 82 79 79 81 85 84 78 83 83 85 89 90 88 86 85 84 84 85 87 88 81 87 89 93 95 97 98 99 94 88 88 90 91
83 72 77 77 83 78 80 79 78 83 80 79 82 80 80 81 85 84 84 82 80 82 86 87 90 94 89 86 89 91 91 86 93 92 92 93 96 98 98 99 98 99 93 95
92 88 84 76 75 79 83 80 84 86 81 78 76 78 79 83 87 87 84 82 82 84 84 87 93 96 92 93 92 93 94 94 95 97 97 96 97 98 98 99 99 97 99 98
82 89 88 88 87 84 85 86 87 88 84 82 84 84 80 82 86 86 86 86 91 94 95 92 95 89 85 88 91 94 93 92 92 98 98 98 99 99 99 99 99 98 98 98
96 86 85 88 87 89 80 79 80 82 79 79 81 79 80 83 86 88 89 90 92 89 84 83 88 85 86 87 93 97 96 96 92 98 99 99 99 99 99 99 98 98 98 98
93 87 90 96 95 96 84 89 90 94 98 97 74 78 81 84 88 86 87 90 81 90 82 85 81 84 86 87 94 95 98 98 98 99 99 99 99 99 99 99 98 98 96 99
86 90 91 96 98 98 99 98 98 99 97 84 74 71 76 80 78 76 82 89 89 94 91 88 80 81 80 81 76 82 99 99 98 99 99 98 99 99 99 99 98 98 98 98
89 89 85 86 91 94 93 91 92 88 68 66 61 62 65 69 73 72 77 89 94 91 86 86 89 87 86 84 76 86 87 92 98 98 99 99 99 99 99 99 99 99 98 98
90 87 84 88 96 87 77 66 61 69 72 67 63 62 67 68 69 68 73 91 88 80 78 77 88 91 88 83 86 93 92 90 80 82 93 97 98 98 99 99 99 98 98 98
94 94 93 91 87 89 93 89 78 82 91 96 97 96 90 84 83 80 73 85 92 66 86 94 90 82 81 74 92 95 94 93 93 92 82 76 78 89 90 96 98 98 98 98
98 96 94 94 96 95 97 99 98 98 97 87 84 81 76 71 73 78 72 76 93 77 86 95 76 68 68 94 97 97 96 96 96 82 80 79 81 81 86 88 88 85 95 98
96 96 96 94 97 98 98 96 95 94 91 90 92 88 86 87 82 85 88 72 66 70 79 79 75 65 64 96 97 97 96 97 97 93 78 76 82 81 80 79 87 83 84 79
95 96 98 99 99 98 97 97 98 88 85 84 83 82 84 86 82 82 92 88 72 72 88 73 63 64 87 95 97 96 95 96 96 96 97 96 92 91 89 87 85 87 89 86
93 94 91 85 88 91 91 95 79 69 64 56 53 58 72 80 84 82 89 77 81 73 89 84 84 83 91 92 93 94 95 96 93 96 90 96 96 96 93 89 85 84 82 83
96 84 98 94 93 93 90 82 81 79 75 70 60 56 58 64 69 76 73 76 70 74 83 81 86 83 90 92 94 92 94 95 85 90 96 97 96 96 94 93 93 92 91 90

GFSNGP_sfc_rhum_102.txt.gz
RH
83 81 83 85 88 86 89 90 97 88 76 62 57 59 49 57 66 70 73 68 76 81 84 84 85 85 84 83 83 83 84 84 86 83 83 82 82 83 84 85 86 86 88 89
92 68 79 90 82 84 85 74 83 80 74 59 57 56 55 63 66 67 69 69 67 73 81 86 88 85 82 84 83 82 85 86 84 84 85 86 87 88 88 89 90 90 91 90
93 72 70 85 81 84 78 71 67 78 64 60 56 52 57 55 53 56 65 66 66 70 74 79 81 80 83 83 85 85 86 85 84 84 86 88 89 90 91 91 92 94 94 92
92 72 84 63 52 61 65 60 63 63 61 57 57 66 66 65 60 55 54 67 66 69 73 77 79 80 82 83 85 86 86 86 85 86 88 91 91 92 93 94 94 96 100 99
89 88 70 72 68 66 68 79 66 71 71 65 60 69 72 67 67 73 71 70 72 68 70 76 79 80 81 86 86 88 88 88 87 87 91 92 92 94 94 95 96 98 96 97
91 89 80 77 64 58 62 91 80 70 68 70 71 83 78 72 74 77 76 77 80 71 68 72 78 80 82 86 89 89 87 86 86 89 91 92 93 95 99 96 99 98 99 99
88 90 74 69 69 65 74 76 70 64 70 77 79 78 77 76 78 77 81 86 87 83 79 75 77 76 82 85 87 85 84 85 87 90 91 92 94 100 98 98 99 99 99 97
87 91 89 66 71 84 72 74 78 70 76 83 81 79 79 78 79 79 81 82 84 90 92 88 82 82 87 87 84 86 87 89 90 91 93 94 97 98 97 98 99 99 98 98
74 75 60 69 64 66 57 59 84 80 79 76 80 81 77 80 81 81 81 82 84 86 84 89 88 83 86 85 87 90 91 91 92 93 95 94 95 98 99 99 98 98 99 98
71 80 83 76 77 76 76 78 82 81 80 77 80 75 82 83 84 83 81 83 82 83 85 88 85 83 87 90 90 91 91 93 94 95 97 95 94 94 97 98 98 99 99 98
86 84 80 72 76 81 78 78 79 80 85 81 85 82 78 84 83 82 84 86 85 85 82 82 82 82 89 90 91 92 92 94 92 92 92 94 95 94 94 89 93 96 95 93
93 85 87 86 87 79 80 81 80 83 85 83 79 83 84 90 90 91 90 90 92 92 90 90 87 86 84 82 87 90 88 90 92 94 93 96 95 95 87 88 86 86 86 88
75 81 74 71 76 76 83 80 79 85 82 82 80 77 77 82 84 80 83 83 84 89 92 92 92 93 92 89 88 88 91 91 92 91 93 95 98 98 99 93 88 89 88 87
92 87 87 82 84 77 81 81 82 87 86 83 83 84 86 87 86 83 87 86 85 87 87 91 96 96 95 94 92 92 93 88 94 95 96 94 96 98 98 99 99 97 90 89
93 92 95 92 90 89 84 81 85 88 85 81 77 79 81 84 88 89 89 89 89 91 95 95 96 96 92 94 94 95 96 96 95 96 97 96 97 98 98 98 99 98 98 94
90 77 88 92 91 84 91 86 88 88 82 83 84 83 85 88 90 91 90 91 93 98 95 95 89 92 90 89 92 96 96 92 91 98 98 98 99 99 99 99 99 99 99 98
90 87 85 82 80 87 90 81 81 82 80 84 84 80 80 84 86 88 89 92 93 85 76 81 88 87 85 91 93 97 98 98 96 98 99 99 99 99 99 99 99 99 98 98
90 87 85 89 96 96 90 91 95 97 98 99 99 95 81 80 85 82 84 90 92 89 83 86 86 80 82 84 81 89 97 98 99 99 99 99 99 99 99 99 99 99 98 99
84 87 87 88 96 97 98 97 98 98 96 97 95 96 91 86 76 73 78 90 91 91 84 85 84 83 83 82 81 85 96 96 98 98 99 99 99 99 99 99 99 99 98 98
88 88 86 85 86 90 95 93 89 84 75 71 62 62 63 70 70 68 71 85 93 86 84 82 85 90 87 85 80 90 91 93 95 94 92 96 99 99 99 99 99 99 99 98
88 87 86 86 90 93 77 68 65 73 75 66 61 64 73 84 91 84 83 88 90 80 77 75 85 85 87 82 84 90 93 94 91 93 91 86 77 80 89 96 97 99 98 97
84 93 93 91 90 90 86 94 85 74 79 91 96 97 97 93 86 83 77 77 91 66 84 92 90 81 79 74 86 89 89 90 92 94 94 91 82 80 78 77 84 82 83 92
94 96 94 95 94 95 93 96 96 95 98 98 92 84 80 73 70 72 64 75 83 74 83 88 74 67 66 90 92 91 91 92 92 93 89 84 86 86 83 80 82 81 86 87
91 89 94 93 94 98 100 97 98 97 97 93 95 92 90 89 88 88 84 73 67 68 78 80 75 62 61 88 95 96 92 94 97 98 97 87 95 90 83 82 87 91 87 82
95 96 98 99 99 98 98 97 98 98 98 94 90 88 87 89 80 85 92 90 73 75 85 71 61 62 85 91 97 97 97 98 98 98 98 98 98 98 97 95 94 94 90 92
92 96 95 94 93 93 87 93 96 94 77 71 67 63 66 84 90 84 87 83 85 75 90 88 90 87 93 93 96 97 97 97 95 97 92 97 97 97 96 95 95 94 92 94
98 89 99 96 95 94 95 96 98 94 81 82 80 68 60 62 68 70 70 78 77 75 86 86 89 84 93 95 95 93 96 96 90 95 97 98 97 97 96 95 95 95 94 94

GFSNGP_sfc_rhum_105.txt.gz
RH
84 74 88 86 89 91 89 92 92 91 84 72 66 57 56 61 72 72 73 74 81 87 90 90 91 92 91 90 90 88 87 87 89 87 85 86 85 87 87 87 88 89 90 91
90 73 84 92 88 88 86 91 89 87 87 72 67 71 62 63 62 66 71 75 79 86 87 88 90 90 87 89 88 86 87 87 85 85 86 87 89 90 90 91 91 91 92 91
88 73 78 84 73 90 84 80 85 85 74 63 58 60 70 71 60 59 61 78 76 80 80 85 89 87 88 87 87 86 86 86 86 86 87 89 91 91 92 92 92 94 96 95
92 72 84 63 58 70 73 68 69 67 66 66 68 76 76 76 77 68 68 76 76 75 78 82 81 83 83 83 84 86 86 87 87 88 90 92 92 92 93 94 93 97 99 97
88 88 76 80 71 75 68 84 76 77 74 67 67 74 81 73 74 79 78 74 78 79 75 82 82 81 83 87 88 88 88 88 88 88 91 92 92 93 94 95 96 96 96 98
92 89 84 79 68 62 66 92 80 70 68 69 70 76 77 78 82 82 80 84 89 87 73 79 85 82 82 88 89 90 89 88 88 90 91 93 92 94 99 95 98 98 99 96
90 94 80 67 74 65 77 71 76 65 72 77 76 75 81 81 81 81 83 86 88 87 82 81 83 81 86 89 89 86 86 87 89 91 92 92 94 99 100 97 96 99 99 96
90 93 91 64 75 83 70 80 86 76 78 84 84 85 83 81 83 84 85 85 87 92 93 90 85 84 88 89 86 86 87 88 90 92 93 94 97 99 97 97 99 99 98 98
78 78 75 85 84 86 81 65 84 82 79 83 85 85 85 85 84 84 85 86 86 88 88 89 90 85 88 86 87 89 90 90 91 93 94 95 97 98 99 98 99 99 99 98
82 86 88 86 85 87 86 86 84 86 82 82 84 76 88 88 88 88 87 87 85 84 82 82 80 88 90 91 89 91 92 92 94 95 96 97 96 94 98 99 99 99 99 99
88 85 84 84 90 89 86 84 84 84 91 87 88 81 78 86 89 92 93 90 88 85 83 88 87 87 90 92 91 92 92 94 95 96 96 97 96 95 96 93 94 98 97 97
87 85 85 86 90 83 85 87 84 86 88 82 82 83 84 91 92 89 88 88 91 94 92 91 92 93 92 88 88 90 92 92 94 95 97 97 97 95 87 89 86 87 87 90
82 89 83 80 83 83 84 87 86 87 86 80 80 80 82 86 81 77 81 83 86 93 93 94 96 96 96 94 92 91 92 92 94 92 94 95 98 98 98 91 87 89 89 89
95 90 87 89 92 93 92 87 83 89 89 86 82 82 81 84 83 83 85 86 87 89 92 95 95 96 95 96 95 94 94 89 96 96 96 96 97 97 97 98 98 96 87 89
95 93 92 93 91 90 92 88 88 89 88 87 78 79 81 84 86 88 87 87 90 95 97 96 96 96 94 94 94 96 97 97 97 97 97 96 97 98 98 98 98 98 98 94
91 89 86 89 91 90 92 85 86 86 84 84 85 84 86 88 90 90 91 93 93 96 95 95 87 94 86 88 89 92 98 97 95 98 98 98 99 99 99 99 99 98 99 98
92 92 89 87 80 87 92 83 83 84 83 88 94 92 97 97 98 89 86 91 91 83 73 87 94 90 83 90 86 91 95 96 97 99 99 99 99 99 99 99 99 99 98 98
89 83 84 85 89 88 85 91 95 96 97 98 99 99 97 93 83 77 78 85 95 90 83 85 90 88 83 82 88 89 94 98 98 99 99 99 99 99 99 99 99 99 98 99
93 85 85 84 91 95 96 95 98 98 98 96 96 97 97 96 92 89 90 89 93 92 80 82 81 85 86 82 85 88 95 94 96 96 96 96 99 99 100 99 99 99 99 99
90 86 85 85 84 87 94 94 93 89 80 79 74 81 75 77 76 72 75 81 90 86 83 80 79 85 87 83 80 85 90 90 91 90 90 90 91 89 92 96 98 99 99 99
84 87 85 85 86 87 87 75 69 83 73 70 65 66 74 86 94 97 96 96 87 81 78 74 81 79 80 82 83 84 88 91 91 93 91 90 88 85 84 83 81 81 82 86
87 90 92 91 90 90 85 88 90 76 76 86 91 97 99 98 95 93 86 84 88 72 81 86 84 80 80 72 80 80 82 82 85 88 91 89 90 88 86 87 87 86 84 90
92 88 91 95 95 93 92 94 97 95 90 95 97 96 89 85 82 78 70 68 84 76 79 83 76 68 65 87 86 84 86 88 89 90 92 97 96 97 93 89 81 84 92 93
92 87 88 89 93 97 99 97 97 96 96 97 97 94 96 98 92 89 86 77 76 78 79 78 75 65 61 85 88 90 90 93 97 97 96 88 98 98 98 98 98 97 94 93
95 96 98 100 100 98 97 96 98 98 98 98 97 95 93 95 89 92 97 93 76 74 87 70 65 63 86 94 96 96 95 98 98 97 98 98 98 98 97 97 97 95 96 96
94 96 96 96 96 96 96 95 97 94 91 87 80 75 73 83 93 91 94 87 89 80 87 87 85 83 94 95 95 96 96 96 95 96 92 97 97 97 96 96 96 96 95 96
98 90 99 96 95 96 95 93 96 96 95 95 88 82 76 66 71 77 73 78 80 82 81 82 86 82 91 95 96 96 97 97 88 92 96 97 97 97 96 96 96 95 95 95

GFSNGP_sfc_rhum_108.txt.gz
RH
84 75 87 88 89 91 94 93 88 85 81 75 72 67 67 67 72 73 73 71 84 89 92 92 92 90 90 92 92 92 92 92 93 92 91 90 90 91 91 90 91 90 92 92
87 75 85 93 89 90 88 91 89 87 83 76 70 67 66 71 63 66 74 75 76 84 88 90 91 92 92 93 92 90 91 92 91 90 89 90 91 92 92 93 93 92 93 92
87 75 85 84 75 89 83 82 85 78 80 65 67 66 76 77 72 67 70 80 76 77 84 88 90 91 92 92 91 90 89 90 89 90 90 91 92 92 93 93 94 96 98 96
92 76 89 68 69 69 78 75 70 67 68 66 65 72 78 78 81 81 82 80 81 85 84 85 88 89 91 90 90 91 91 91 90 90 92 93 92 93 94 94 95 99 99 100
88 88 78 82 77 88 84 90 86 83 78 67 70 79 80 76 82 86 86 82 86 87 86 85 88 90 91 91 91 91 91 91 90 90 92 93 94 94 95 96 97 97 96 96
93 88 88 82 76 67 67 91 84 72 72 80 77 75 81 83 82 81 85 91 94 91 86 86 90 90 91 92 91 90 91 90 90 90 91 92 93 95 99 95 100 99 99 96
90 94 82 71 75 76 79 69 85 69 79 80 78 76 84 85 84 84 84 87 92 93 92 87 89 88 88 91 89 88 89 90 91 92 92 92 95 100 100 98 97 99 98 94
92 94 92 77 76 80 72 80 87 82 80 84 84 84 84 84 86 86 88 87 90 94 95 94 90 89 90 90 88 89 89 90 92 93 93 94 97 99 98 97 98 99 98 98
78 80 81 88 89 89 89 79 88 86 82 84 85 86 86 88 89 87 88 90 89 91 90 91 92 88 90 89 88 90 90 91 92 93 95 95 99 99 99 98 99 99 99 99
87 88 87 90 87 90 91 90 88 90 86 84 84 82 89 88 90 92 92 92 90 90 83 82 86 88 89 88 88 90 92 93 94 95 96 96 96 97 98 99 99 99 99 99
87 87 86 85 90 90 88 87 88 86 91 89 87 80 79 85 90 94 94 94 91 91 86 89 91 88 86 88 86 90 90 93 95 95 96 97 97 97 97 95 95 99 98 97
90 83 83 85 90 88 88 90 89 92 86 83 82 87 82 91 91 90 88 87 93 94 94 92 95 96 96 93 89 91 93 94 95 96 96 97 97 96 88 88 86 87 87 92
87 88 85 84 87 92 90 89 89 90 89 81 80 81 89 88 86 80 82 87 91 94 95 96 96 96 96 96 94 94 94 93 94 92 96 96 98 98 98 91 88 90 90 89
93 87 87 90 91 93 93 89 85 90 89 90 82 82 81 83 82 82 86 86 87 91 96 96 95 96 96 96 95 96 96 91 97 97 97 97 97 97 97 98 97 96 86 88
94 92 91 93 92 91 92 89 90 90 89 88 86 81 82 86 87 87 85 85 88 92 94 96 95 95 92 88 91 95 98 98 98 98 98 97 97 98 98 98 98 98 97 92
92 90 90 92 92 90 93 93 90 84 84 84 85 84 87 90 91 89 87 89 94 98 97 91 90 91 85 84 86 89 94 97 96 99 99 99 99 99 99 99 99 99 99 99
93 94 93 93 82 77 83 78 89 89 86 89 94 96 99 99 99 98 96 95 95 83 75 80 89 86 82 80 84 86 86 92 91 99 99 99 99 99 99 99 99 99 99 99
85 85 82 77 80 82 85 88 96 96 98 98 99 98 93 93 92 89 78 79 93 90 81 74 84 88 81 82 91 87 90 97 95 98 98 98 99 99 99 99 99 99 99 99
92 92 90 86 89 90 93 93 97 97 97 95 95 94 94 97 95 89 91 89 93 92 82 75 73 81 86 80 85 83 90 89 89 92 92 88 96 96 98 99 99 99 99 99
92 89 88 85 83 84 92 92 92 92 87 86 80 87 89 84 83 82 82 82 84 88 80 79 76 75 82 82 80 82 85 88 88 88 88 90 89 89 90 83 82 84 87 91
92 91 86 84 84 85 84 73 74 84 89 73 68 73 68 76 88 96 100 100 94 92 92 76 83 80 77 79 84 81 82 84 85 88 87 88 87 87 88 88 88 86 85 90
94 92 90 86 88 90 86 86 87 82 78 82 88 95 100 99 97 97 92 92 92 75 89 89 86 76 82 72 81 77 77 77 79 85 89 87 88 90 95 96 97 89 87 94
94 93 89 92 94 93 92 92 93 94 96 89 91 94 98 96 87 85 76 67 95 79 87 88 77 70 69 86 83 81 84 86 86 86 92 96 94 98 96 94 94 93 97 96
95 94 94 87 89 97 98 95 95 94 95 94 96 95 97 98 97 95 92 79 71 79 89 86 79 68 64 89 88 87 85 89 94 97 96 85 98 97 96 96 96 94 95 93
95 96 97 100 99 97 98 96 97 98 98 98 98 97 96 96 96 94 96 97 81 84 95 74 66 64 82 87 90 92 93 97 98 97 98 98 97 97 96 97 96 95 97 97
94 96 96 96 98 98 97 96 98 96 96 97 91 85 84 84 92 91 95 89 94 86 95 96 92 81 87 92 91 92 95 94 94 96 92 97 97 97 96 95 96 96 96 96
98 92 99 97 95 97 97 97 97 94 92 96 97 94 88 82 74 78 79 89 87 90 96 95 93 83 89 90 95 97 97 97 90 96 98 98 97 97 96 96 96 95 95 94

GFSNGP_sfc_rhum_111.txt.gz
RH
79 79 80 87 88 87 95 90 87 79 74 70 67 66 66 64 62 64 70 71 80 82 82 84 82 81 82 85 86 86 86 86 87 84 80 78 78 77 75 74 76 76 76 77
84 83 81 82 84 84 84 82 84 78 78 63 61 64 67 73 64 67 73 78 76 78 82 82 82 82 84 84 84 81 83 84 83 80 79 80 80 80 78 80 80 78 80 79
87 73 78 81 72 82 78 82 77 83 76 64 70 74 80 76 74 77 76 74 77 80 78 81 83 83 83 82 80 80 80 80 79 77 79 80 80 80 82 83 83 86 84 81
90 67 87 65 70 67 75 82 75 74 72 68 72 78 78 79 80 80 79 79 79 82 83 77 81 81 82 82 81 84 82 81 79 78 80 81 81 83 88 87 96 96 98 94
83 87 74 83 74 82 73 92 81 76 67 67 70 72 76 80 81 82 84 84 86 85 85 80 81 83 82 83 84 84 84 82 81 79 83 83 87 89 87 90 99 99 93 95
90 86 87 83 70 68 75 94 80 66 69 73 67 72 73 83 82 82 83 85 88 88 84 77 83 82 82 83 82 84 83 83 81 82 82 85 86 91 99 91 99 96 96 89
91 92 79 67 72 72 74 70 86 71 77 79 78 75 80 81 82 82 83 85 87 88 89 90 84 82 84 84 84 83 84 85 86 85 86 86 92 98 98 97 95 96 93 88
91 93 89 84 79 76 66 78 87 80 76 83 84 85 84 82 84 85 85 84 86 88 92 91 87 83 86 85 85 86 86 87 88 88 87 87 93 97 93 90 90 94 92 91
77 76 75 90 90 90 89 83 91 89 85 82 83 84 83 87 85 86 87 86 83 84 86 87 88 85 86 90 85 86 86 87 87 87 87 86 93 95 91 90 91 94 95 94
85 88 89 89 89 91 92 90 91 92 90 83 84 82 81 84 88 89 90 90 86 84 83 83 82 85 88 88 84 84 84 85 87 87 88 86 90 90 87 90 91 96 96 96
88 90 87 85 90 91 89 88 87 87 92 90 80 79 78 83 86 90 91 91 90 88 84 86 84 87 86 85 87 90 93 94 93 92 90 89 90 88 86 84 89 95 95 94
87 81 80 82 88 86 86 89 90 91 90 85 82 86 83 87 87 82 80 84 91 93 93 92 88 89 90 89 84 84 90 91 92 92 92 96 93 88 88 89 87 87 85 86
86 87 86 90 88 92 91 90 90 91 92 90 85 80 82 84 82 78 80 83 89 89 93 90 89 90 92 92 90 92 92 92 89 86 88 91 93 96 98 90 90 91 90 89
89 83 88 89 92 94 94 91 87 90 90 90 88 86 79 83 82 82 86 84 84 88 92 91 88 90 91 86 89 91 92 90 93 92 93 91 92 94 95 96 93 91 86 89
92 89 85 92 90 93 92 92 91 88 89 89 88 88 88 91 88 87 86 86 86 87 89 90 90 87 85 82 84 87 93 96 96 98 98 96 96 95 95 95 96 95 94 90
94 93 93 91 91 90 93 92 95 94 90 88 84 84 87 87 90 87 85 86 91 95 94 90 90 90 88 78 82 85 80 87 90 98 98 99 99 99 99 99 99 99 99 98
95 96 94 93 88 86 88 79 82 89 92 94 95 95 98 99 97 93 92 93 97 91 73 72 77 81 78 74 84 84 80 87 84 95 99 98 99 99 99 99 99 99 99 99
82 84 85 84 88 84 81 88 91 96 96 97 98 96 94 94 92 88 77 82 88 93 87 73 74 83 76 73 84 78 79 82 82 86 89 88 95 98 99 99 99 99 99 100
89 89 89 90 92 90 87 91 94 95 97 93 96 96 94 92 90 92 87 82 86 93 88 75 70 72 80 79 86 82 77 77 76 77 77 80 83 83 89 86 87 90 93 97
93 90 90 91 88 83 91 91 90 91 87 92 92 88 88 87 82 81 80 79 76 82 84 78 79 75 74 75 74 80 74 75 76 76 76 77 78 81 80 77 78 79 82 82
92 92 91 90 89 83 82 77 70 85 92 86 80 76 80 69 78 90 98 98 92 90 90 87 87 80 75 74 82 80 73 72 74 76 77 76 76 79 80 80 82 79 79 83
96 95 93 92 89 87 85 84 81 82 76 83 83 91 95 96 97 98 95 96 90 73 92 90 90 78 78 74 83 75 72 71 72 75 80 78 78 82 88 89 91 86 85 87
95 93 90 94 92 91 92 92 91 90 93 92 86 88 93 95 96 90 78 67 85 82 87 89 82 72 68 83 80 78 78 80 80 81 85 88 87 92 91 88 87 88 90 87
95 94 94 88 89 98 99 96 95 94 94 94 94 92 94 98 95 91 86 78 81 78 89 90 83 70 67 92 84 82 81 84 88 92 87 81 93 92 90 89 91 88 88 87
94 96 97 100 98 95 95 97 98 97 98 97 97 95 97 96 96 95 90 87 76 80 95 82 73 68 87 92 91 88 88 91 94 92 91 93 92 93 92 92 92 89 91 91
95 96 95 95 96 95 95 99 99 98 98 98 96 95 92 90 88 92 96 91 92 84 96 95 94 89 91 92 88 85 86 90 87 88 88 92 93 94 93 91 91 91 90 91
99 94 99 98 95 96 97 98 99 98 95 95 95 94 94 94 88 83 78 87 90 94 96 95 94 86 92 93 91 90 92 92 88 93 94 95 94 94 92 92 92 91 92 92

GFSNGP_sfc_rhum_114.txt.gz
RH
66 66 67 72 69 63 92 65 82 60 62 57 54 52 50 47 51 61 67 63 65 69 68 64 63 66 72 80 82 80 80 81 80 78 76 75 74 70 64 62 62 61 60 59
76 55 52 62 62 56 61 56 56 54 62 49 49 44 47 50 52 57 58 59 66 61 61 64 65 62 67 75 77 74 77 78 76 72 70 71 70 68 66 63 62 61 62 63
75 57 59 65 70 66 62 60 56 63 59 49 53 58 62 57 55 58 58 58 67 62 62 64 63 61 62 63 64 68 70 70 69 67 68 68 66 68 68 69 67 68 67 67
58 48 66 58 57 60 66 66 57 58 55 53 56 59 59 58 59 57 60 61 61 64 61 59 60 60 61 62 63 67 65 66 64 64 66 66 66 70 76 75 78 79 82 76
56 58 61 60 61 74 67 75 60 53 51 52 56 54 60 61 60 62 63 64 65 63 63 60 61 60 61 62 65 66 65 65 64 63 66 66 74 76 75 83 93 90 83 78
63 64 66 56 54 54 54 76 61 52 54 53 49 47 58 62 60 60 62 66 68 65 60 59 64 61 61 60 59 63 64 64 61 64 65 68 71 78 88 79 93 83 84 80
59 64 55 48 53 54 55 70 66 56 58 56 54 58 64 60 63 60 63 67 65 66 70 70 65 62 66 65 68 68 65 66 66 65 68 69 77 80 83 86 89 90 84 75
62 66 69 58 60 54 57 62 65 61 61 64 63 65 65 66 67 67 67 65 67 70 75 73 70 66 70 74 74 71 68 70 70 70 70 70 76 84 74 74 74 76 72 76
51 51 65 69 68 67 63 63 70 66 65 61 65 66 67 68 66 68 68 67 63 65 68 72 77 73 74 76 69 68 68 69 69 67 66 65 65 72 67 67 65 71 82 78
62 66 67 66 68 70 68 68 70 71 67 64 62 64 71 70 68 68 70 70 66 63 65 73 76 79 81 83 79 69 72 71 68 67 66 64 68 67 64 67 68 74 82 80
64 68 66 64 65 68 70 68 69 68 73 68 63 66 64 70 72 72 68 69 68 67 67 70 68 70 76 79 86 92 94 95 93 89 83 80 78 72 69 65 72 76 78 75
51 50 49 52 61 65 64 68 71 71 70 68 71 69 70 74 72 63 61 64 67 70 69 71 68 70 74 72 70 70 72 82 89 90 93 98 96 96 93 92 90 89 88 87
52 52 62 63 65 67 64 69 71 70 73 72 69 68 70 77 71 68 63 66 69 74 74 72 70 72 72 72 73 79 78 78 74 73 70 74 87 98 99 95 94 94 92 91
59 63 73 69 65 71 71 73 74 71 70 71 70 69 69 71 72 70 73 75 73 76 78 78 81 88 88 81 77 79 80 87 84 81 84 81 80 82 83 86 85 83 85 90
65 62 57 64 70 74 72 73 75 71 70 71 69 70 72 73 75 76 75 76 78 78 80 81 84 80 79 77 79 83 84 86 85 92 94 96 95 93 91 89 87 81 81 85
73 71 71 70 72 74 75 76 75 74 74 71 72 74 76 74 77 80 79 79 84 87 88 85 82 74 75 75 81 83 78 77 81 95 97 98 98 99 98 98 97 96 96 96
79 85 79 76 74 70 68 64 65 71 77 77 81 84 88 90 90 89 86 84 85 81 69 65 63 68 68 64 73 77 73 72 75 72 76 86 96 99 99 98 98 98 98 99
61 58 60 56 64 67 68 67 71 79 84 89 96 93 89 89 88 81 76 62 61 75 70 64 55 64 64 60 66 66 65 70 70 69 70 69 75 78 85 92 98 99 98 99
62 63 63 64 62 63 66 72 78 83 89 91 89 86 81 81 80 79 74 69 62 66 60 66 64 64 56 65 72 72 69 67 68 68 69 72 70 67 72 72 72 75 77 84
73 70 70 75 72 71 77 75 77 80 80 84 84 79 78 75 72 66 68 68 56 54 68 67 62 60 58 58 68 68 63 58 58 59 63 62 64 66 66 71 70 69 68 70
81 80 77 75 73 69 70 69 72 76 80 79 77 71 67 64 60 67 76 80 80 83 82 78 75 69 58 59 69 72 66 58 56 58 62 62 62 64 67 68 70 71 69 68
91 91 90 85 82 80 74 68 70 75 69 67 76 73 68 67 71 80 81 85 74 73 68 70 73 71 63 66 72 71 65 58 56 60 64 67 68 70 75 78 80 76 77 78
95 91 86 90 90 89 84 87 85 84 86 83 75 70 70 67 73 83 83 65 64 62 64 64 71 75 71 66 72 70 68 67 66 66 71 78 80 82 83 82 79 79 82 80
88 87 84 79 80 86 90 92 94 92 86 88 89 88 84 84 81 79 78 79 80 75 74 67 71 74 70 67 72 74 71 68 72 78 76 77 83 85 84 81 82 81 81 80
87 88 88 89 89 83 88 87 87 89 92 92 91 87 89 83 89 80 83 87 85 73 67 70 76 74 68 68 73 75 74 77 82 82 79 84 85 85 83 83 84 82 82 83
81 78 76 78 78 78 80 86 92 80 82 83 80 82 82 83 84 86 86 86 81 76 71 70 72 71 68 69 68 65 63 67 72 76 79 81 84 85 84 83 81 82 82 83
86 85 87 88 80 82 84 86 87 82 83 85 84 79 78 79 80 79 75 67 65 69 72 70 71 72 71 69 67 66 67 70 77 81 83 85 86 87 83 81 83 83 83 83

GFSNGP_sfc_rhum_120.txt.gz
RH
58 57 65 71 66 67 75 71 94 77 77 69 65 62 62 60 64 74 80 84 88 89 86 88 90 94 93 93 95 94 97 98 99 98 98 98 98 97 96 93 92 88 84 84
70 53 62 76 77 70 88 95 66 76 76 62 63 63 64 65 66 70 72 75 76 76 77 77 82 89 89 92 91 85 89 92 92 91 91 93 94 93 90 90 91 85 81 83
83 61 58 84 89 70 65 59 61 82 66 64 72 72 72 70 69 75 75 72 71 73 73 77 76 74 80 81 79 83 85 83 84 85 86 86 84 86 88 90 91 91 91 82
84 64 86 65 58 62 61 58 55 56 60 68 75 73 69 67 73 78 76 74 72 72 71 69 70 74 76 77 78 82 85 87 85 82 83 84 86 91 92 92 93 93 94 92
82 81 74 68 66 65 68 73 60 61 56 60 69 70 80 68 68 76 77 74 74 71 71 71 72 70 72 73 75 78 79 78 79 82 84 83 89 91 92 95 94 93 94 96
72 78 81 73 64 58 60 86 63 62 64 67 62 93 93 76 71 75 78 78 80 79 75 74 74 70 75 81 82 84 80 80 79 80 83 90 90 93 95 95 96 95 93 93
69 83 71 60 62 58 81 84 65 64 69 75 89 88 81 74 75 71 76 81 81 83 86 85 80 77 84 85 89 83 80 80 81 82 85 89 94 93 96 97 95 95 94 91
71 76 86 63 66 79 79 70 66 71 72 75 76 75 73 74 77 77 77 78 82 86 88 85 84 84 92 95 88 80 80 83 85 86 84 89 93 94 95 96 96 96 94 93
72 79 72 74 76 70 65 72 78 76 74 71 74 77 73 77 77 77 76 76 77 83 84 86 86 89 95 95 90 81 81 83 82 80 79 84 90 91 93 92 94 94 94 95
70 77 78 76 78 76 71 77 77 75 72 70 75 73 76 76 77 80 78 77 74 77 82 86 84 84 88 87 93 91 90 93 92 92 87 82 82 83 88 90 90 89 93 95
71 76 75 72 72 74 74 71 73 76 77 73 71 71 74 78 76 76 76 75 74 77 79 81 80 82 81 80 83 91 92 94 96 97 95 92 90 89 88 89 94 93 92 90
64 61 67 68 69 69 75 75 75 75 79 76 75 76 75 80 75 71 75 75 79 80 80 79 80 83 82 79 80 83 85 89 91 93 95 97 98 98 94 96 96 96 96 97
53 56 57 63 70 69 68 71 71 74 77 78 76 77 77 82 77 70 73 77 83 87 82 73 76 89 90 86 85 87 90 85 86 86 89 93 90 97 98 90 91 96 97 97
68 68 75 73 78 68 70 71 73 73 76 76 77 75 77 82 81 76 80 82 83 83 76 77 87 89 87 84 86 89 90 80 89 94 97 93 95 98 98 98 98 96 84 93
72 70 70 71 74 75 76 77 81 80 77 78 76 79 81 83 84 84 84 82 83 84 86 87 88 87 85 87 83 87 89 83 84 93 96 94 99 99 99 99 99 98 94 88
71 69 73 77 80 82 82 81 82 78 74 74 77 81 84 84 88 88 86 87 90 92 89 90 88 80 70 74 71 78 78 66 74 92 92 93 88 96 97 99 99 99 99 99
82 84 82 83 82 82 81 76 73 73 80 83 86 89 88 83 90 89 84 81 87 90 88 86 81 69 68 67 69 80 81 76 64 82 83 86 89 93 98 99 98 99 99 99
74 70 72 74 76 73 72 68 70 73 82 85 89 91 91 95 96 92 87 86 79 72 70 79 74 66 66 65 67 76 81 82 80 82 81 81 83 88 88 91 92 95 93 97
70 70 66 61 65 65 69 73 78 82 89 91 93 94 91 90 88 86 86 87 89 88 76 70 75 71 70 62 72 81 88 86 78 75 76 73 91 86 94 94 91 88 84 81
68 68 66 68 66 71 75 77 83 87 89 90 90 89 90 83 81 87 87 88 86 80 76 79 79 78 73 67 64 87 86 84 80 73 71 74 80 79 80 76 82 87 87 78
78 78 79 77 77 76 78 81 85 87 87 88 91 91 89 80 75 82 88 93 83 80 85 84 92 89 86 83 76 80 85 88 83 76 72 74 74 77 87 86 88 88 87 84
88 88 87 85 83 84 80 80 83 83 84 86 88 91 88 86 86 86 81 83 91 76 93 96 96 86 90 77 84 83 88 91 85 77 79 82 90 92 96 96 96 96 95 95
92 91 91 91 90 91 88 90 89 89 92 89 88 88 88 88 86 86 90 86 93 88 92 95 82 72 70 88 94 91 92 93 92 92 93 95 96 97 98 97 97 96 97 97
93 92 91 91 92 94 96 96 97 95 90 94 93 92 94 95 94 91 90 76 78 81 84 88 80 75 78 95 95 94 94 94 95 96 95 77 97 98 98 97 97 96 96 92
93 94 94 94 94 93 94 95 97 98 97 98 96 95 94 95 94 96 97 95 84 86 97 92 88 86 90 93 95 94 94 96 97 97 97 97 97 98 97 97 96 96 95 96
94 94 94 92 91 90 90 91 94 92 92 92 92 92 94 95 96 95 96 93 95 95 98 98 96 92 94 95 94 93 94 95 92 93 92 96 97 98 98 97 97 96 96 96
95 88 96 92 91 91 91 92 94 94 91 93 94 91 90 92 93 92 90 94 93 94 95 94 93 88 96 96 94 95 95 95 85 96 96 97 98 98 97 97 97 96 97 97

GFSNGP_sfc_rhum_126.txt.gz
RH
98 81 84 88 89 81 91 93 96 94 94 98 96 97 96 96 94 90 93 94 96 97 98 97 96 96 96 98 98 97 98 98 99 99 99 99 99 99 100 100 99 99 99 99
82 81 81 92 86 74 75 76 81 79 91 78 78 82 89 94 92 92 94 93 93 94 94 95 94 94 93 95 97 94 97 98 98 98 98 99 99 99 99 99 99 99 99 99
84 71 67 84 94 84 80 76 79 92 84 81 88 88 90 93 92 95 94 93 93 93 92 92 92 90 92 88 85 89 90 91 94 93 96 97 95 96 99 99 97 98 98 98
88 71 86 71 76 74 78 78 75 75 81 83 87 86 83 82 92 95 95 94 92 90 88 85 79 77 76 77 79 85 89 88 86 88 91 90 91 94 96 98 99 99 99 99
83 95 84 81 78 70 83 85 80 80 79 79 78 74 83 78 82 91 91 90 90 88 85 84 82 78 77 79 80 84 85 84 84 84 88 88 93 93 94 94 96 98 97 97
81 87 87 77 76 68 72 84 84 82 87 84 77 92 96 87 85 93 92 89 90 88 86 86 87 83 85 87 87 91 90 92 93 94 94 93 93 95 96 94 95 96 97 96
83 88 78 68 74 66 85 73 85 85 90 89 95 93 90 88 88 90 92 92 89 89 94 95 90 86 92 93 97 93 90 89 91 93 95 96 97 96 96 96 94 93 91 90
81 84 67 64 74 72 69 86 82 87 90 92 91 90 89 89 90 90 92 89 88 91 92 90 91 92 97 98 94 90 89 91 92 95 93 92 95 96 95 94 95 92 92 94
65 66 69 81 76 81 78 83 85 85 87 87 88 89 88 89 89 90 89 90 89 92 91 91 91 92 96 99 96 94 95 96 96 94 94 94 94 95 96 95 95 95 96 94
69 72 83 84 84 84 84 81 81 81 81 83 84 85 86 88 89 89 89 89 86 88 91 93 93 92 94 93 92 92 94 94 96 97 97 96 96 96 95 96 96 96 96 96
78 82 86 82 83 84 86 85 84 83 82 81 83 84 85 87 87 87 87 87 87 89 91 92 92 94 94 92 92 94 94 95 95 96 96 96 97 98 98 97 98 99 98 98
63 70 76 77 82 85 89 89 87 85 88 87 83 84 86 86 85 84 85 86 87 87 88 90 92 94 94 93 93 94 97 97 96 98 98 98 98 96 85 85 85 88 92 96
51 66 71 75 77 85 86 87 87 86 86 86 87 87 88 88 85 80 85 86 87 87 87 87 90 92 92 91 92 94 96 96 96 95 85 88 87 90 93 87 83 84 84 86
77 75 82 86 89 87 83 84 83 85 87 87 88 88 88 88 85 88 88 88 88 83 80 82 89 91 90 91 91 92 93 85 95 95 96 93 90 91 89 94 90 92 84 85
80 74 72 83 88 87 86 89 89 89 89 88 88 90 91 91 90 89 90 90 88 87 90 91 92 91 89 88 89 83 91 94 89 92 95 90 94 95 96 95 90 82 82 84
80 83 87 83 86 87 88 90 88 90 90 89 90 92 91 91 92 92 92 92 94 95 92 94 94 90 88 85 83 80 87 74 72 90 87 86 90 89 93 98 97 97 84 89
86 90 90 90 87 88 84 82 81 85 89 89 90 91 94 94 94 94 90 87 84 84 90 93 92 87 80 82 80 80 88 82 68 82 84 85 87 86 92 93 92 96 94 91
78 68 77 72 80 85 90 89 88 87 88 87 91 94 94 95 94 94 93 93 91 88 85 78 76 86 81 79 77 78 85 84 84 88 84 84 85 87 92 92 91 97 90 86
80 80 83 82 84 83 86 87 87 87 89 91 94 95 93 92 91 92 91 91 92 93 88 84 76 83 82 76 77 82 86 88 92 91 83 78 93 85 95 95 91 90 89 83
80 80 83 85 87 85 87 85 86 89 91 93 93 94 95 94 93 93 92 92 90 91 85 79 81 88 85 79 72 85 85 88 89 90 88 84 81 82 85 80 85 91 92 82
82 84 85 86 86 83 81 83 88 92 94 93 94 94 93 90 91 91 96 97 86 82 84 83 91 88 88 84 85 89 91 91 84 88 92 88 81 81 90 91 91 90 93 94
88 87 87 87 85 88 90 91 90 92 95 95 94 95 96 95 91 92 88 90 95 75 92 98 97 87 91 81 93 95 92 84 82 87 95 93 92 91 91 95 96 96 96 98
92 89 88 88 87 88 93 93 92 92 94 94 93 92 93 92 92 94 93 85 94 84 91 95 88 83 82 93 96 96 95 93 92 92 96 97 95 94 95 95 96 97 98 97
92 89 88 91 91 91 94 94 93 91 88 91 90 89 92 96 96 96 95 84 79 82 92 95 92 82 76 97 94 96 96 98 97 97 96 87 97 96 97 97 97 97 98 96
94 95 94 92 90 87 90 92 94 96 95 96 96 95 94 95 94 97 97 97 86 91 98 90 86 83 90 96 98 98 97 97 97 97 97 97 97 97 97 97 97 97 98 98
93 94 92 87 82 89 88 91 88 93 93 92 90 90 92 94 96 97 98 96 100 98 100 99 100 100 100 100 99 98 98 98 94 95 96 97 98 98 97 97 98 98 98 98
98 92 98 95 91 90 92 89 88 88 88 87 83 87 91 91 91 92 90 95 95 96 99 98 99 96 98 99 98 98 98 98 93 99 98 98 98 98 98 98 98 98 99 98

GFSNGP_sfc_rhum_129.txt.gz
RH
92 93 84 89 87 81 90 90 97 93 97 98 97 98 99 98 92 88 92 93 96 96 97 96 97 97 96 98 97 96 97 97 98 98 98 98 98 99 99 99 99 99 99 99
95 88 81 88 88 79 80 79 79 80 94 84 84 85 94 96 93 92 93 93 93 92 93 94 95 95 95 97 97 94 97 98 97 97 97 98 98 98 98 99 99 99 99 99
85 74 70 81 87 88 83 81 82 93 82 84 88 91 94 95 94 95 94 94 94 93 93 94 93 90 94 94 91 89 92 92 94 94 96 96 94 96 98 98 97 98 99 99
88 71 76 67 76 73 80 79 80 76 77 82 86 88 85 84 95 96 95 93 92 90 90 87 80 80 80 81 84 86 87 90 90 90 91 90 91 95 97 97 99 99 99 99
85 92 77 80 79 79 84 80 82 81 83 79 78 78 82 82 86 95 94 91 90 88 87 85 85 80 79 81 83 87 92 92 89 88 90 90 94 96 95 95 97 98 97 97
86 87 80 70 77 75 73 82 84 85 86 87 77 89 97 92 89 94 94 91 93 91 89 91 91 85 87 91 90 95 95 95 93 93 92 93 94 96 97 96 98 98 98 98
86 88 73 67 73 71 79 67 83 85 90 89 94 93 91 91 92 92 92 92 89 89 94 95 94 89 94 93 98 95 91 93 93 93 95 97 96 96 96 96 95 96 96 95
84 84 60 68 76 72 61 86 83 88 89 92 93 93 92 91 92 92 92 90 89 90 92 90 91 92 93 97 98 95 93 93 94 95 92 93 95 96 95 95 95 96 95 96
66 61 56 75 74 77 82 83 84 85 88 89 90 89 89 91 92 92 91 92 90 92 93 93 92 93 94 97 92 90 92 96 97 96 96 96 96 96 96 95 96 97 97 96
73 68 75 81 83 83 83 81 83 82 86 87 85 88 88 89 90 90 89 89 89 92 94 96 95 94 96 95 93 93 95 95 96 96 96 97 96 96 98 95 97 99 99 99
80 75 83 80 84 82 84 83 83 84 84 85 84 87 88 89 88 88 88 88 89 91 93 94 95 95 95 94 92 94 95 96 96 96 97 97 96 96 94 89 90 96 98 99
56 61 62 66 76 83 87 86 84 84 86 85 85 86 87 88 88 88 90 90 91 90 91 93 94 95 93 93 92 93 96 97 96 97 92 92 90 92 83 84 83 85 86 90
39 62 75 76 80 86 86 87 87 86 84 86 86 86 86 88 88 83 88 89 88 88 89 91 92 93 93 92 91 93 96 96 96 94 95 95 94 97 97 89 75 77 82 82
75 77 80 86 83 88 85 85 85 88 87 88 89 89 88 88 85 86 86 86 88 89 89 90 90 91 91 90 90 90 92 83 94 95 96 96 95 95 96 96 96 94 76 77
72 78 72 78 87 90 87 91 91 90 90 90 89 89 90 88 88 87 87 90 91 91 91 91 92 92 91 89 88 82 86 92 89 92 91 87 93 92 95 96 97 96 94 85
76 82 87 82 87 89 89 92 90 91 91 90 91 91 90 90 90 90 91 92 92 93 90 91 93 92 90 86 85 80 84 75 73 86 84 83 86 84 87 95 94 95 96 95
83 86 88 87 90 89 86 84 82 85 89 90 90 90 93 94 94 94 94 93 92 90 87 86 92 90 88 83 86 81 84 84 68 83 83 84 85 84 86 91 89 92 90 86
74 70 75 81 86 88 90 89 88 88 88 87 90 93 94 96 94 94 93 92 94 93 90 89 85 79 87 85 84 82 80 84 83 87 88 85 84 86 91 92 91 97 88 85
80 79 80 79 85 87 87 90 89 87 88 89 93 94 93 93 93 92 92 96 96 94 89 87 82 85 89 84 80 84 83 84 85 90 90 82 93 85 94 97 94 89 87 83
84 81 82 82 86 87 89 88 89 89 90 92 92 94 95 94 93 93 94 94 92 92 87 84 82 86 89 84 77 89 86 86 86 90 88 90 89 86 86 82 88 93 92 83
85 83 83 86 89 88 87 89 87 90 92 92 92 94 94 92 94 93 98 99 90 87 90 86 92 88 86 83 85 92 90 91 92 91 85 86 89 89 90 90 92 93 92 96
88 88 87 87 89 90 89 90 88 91 93 94 93 94 95 95 94 95 91 91 95 78 92 96 96 86 90 82 94 95 94 94 90 84 90 92 94 95 95 94 96 95 96 98
95 91 88 91 90 90 92 93 91 90 92 93 94 94 93 92 91 94 93 85 93 87 91 94 88 84 82 93 97 97 95 96 96 97 97 97 96 97 97 96 96 96 98 98
95 89 87 89 92 94 95 96 94 93 91 94 93 92 93 95 94 91 90 82 79 83 92 94 90 83 80 98 95 93 92 94 96 96 96 93 98 98 98 97 97 97 98 96
92 92 95 94 90 88 92 94 95 95 94 95 94 91 92 92 86 92 93 94 85 89 97 89 86 84 92 97 98 99 99 98 97 97 98 98 98 98 98 98 97 97 98 98
94 92 86 84 80 83 84 88 86 89 91 94 94 92 92 93 94 94 98 95 98 97 99 99 100 98 98 98 100 100 99 99 99 97 97 97 98 98 98 98 98 98 98 98
98 89 96 95 92 88 84 84 85 86 87 92 88 87 89 93 93 92 90 95 96 97 99 98 98 96 99 99 99 98 99 97 91 98 99 99 99 99 98 98 98 98 98 99

GFSNGP_sfc_rhum_132.txt.gz
RH
87 92 86 91 90 86 92 92 94 85 95 90 93 98 100 97 92 88 90 91 94 95 95 95 97 97 97 97 97 96 97 98 98 99 98 99 99 98 98 99 99 99 99 99
92 87 85 82 86 86 89 83 82 81 88 81 79 81 95 96 95 94 91 92 93 93 92 94 94 95 94 95 96 93 96 98 97 97 97 98 98 98 98 98 98 98 99 99
90 79 72 77 81 89 86 83 87 92 80 84 84 85 93 95 93 95 95 94 94 94 93 92 94 90 93 90 88 90 92 92 93 93 95 97 97 97 98 98 98 99 99 98
90 75 76 56 81 73 82 78 80 79 78 80 82 81 80 84 94 95 95 94 92 91 89 87 82 84 83 84 84 88 89 89 88 86 88 89 91 95 97 97 98 98 99 99
86 90 70 80 75 81 82 72 78 80 83 81 78 83 78 82 87 94 95 92 91 90 91 88 86 81 83 87 85 87 89 89 88 85 87 88 93 96 94 94 97 98 98 98
87 88 72 56 76 76 75 79 78 80 83 86 82 93 95 92 90 94 92 89 92 92 91 90 95 88 90 94 92 95 94 93 90 90 93 95 96 95 94 94 95 93 93 94
86 91 72 63 75 74 80 54 81 83 87 88 90 91 90 92 92 92 93 93 90 87 92 93 87 84 91 92 96 97 92 91 92 92 92 95 94 94 94 94 93 96 96 96
86 86 57 70 77 76 58 87 84 88 86 88 91 91 91 92 94 92 92 92 92 94 95 93 92 89 94 96 95 95 95 95 96 96 94 92 94 95 94 94 94 95 95 95
70 63 50 75 74 75 80 84 86 87 88 88 91 91 89 89 92 91 91 91 93 94 95 96 95 95 96 98 94 93 92 95 96 95 96 94 96 97 94 94 98 99 98 98
71 66 66 71 80 81 83 80 83 84 88 89 87 89 90 89 89 89 89 89 91 92 95 97 96 96 97 96 93 93 95 96 96 96 96 93 88 88 92 87 91 98 98 97
81 72 77 75 82 80 84 82 84 85 86 87 87 90 89 90 89 88 88 89 90 93 95 96 95 94 95 94 92 94 96 96 96 98 93 93 96 88 92 89 91 95 96 94
41 48 51 50 72 83 86 86 85 86 88 87 86 87 87 89 89 88 88 89 90 91 91 94 94 94 93 93 92 92 94 96 94 95 95 96 96 94 76 78 81 83 81 86
36 50 69 77 80 84 84 86 86 86 84 88 87 86 87 89 89 86 89 90 91 91 91 94 95 94 93 91 91 93 96 94 94 95 95 95 94 94 93 83 75 72 75 74
73 80 79 82 64 86 84 84 84 85 86 86 87 88 88 89 88 90 90 89 90 91 92 92 92 94 93 90 87 87 91 78 87 94 95 94 94 94 95 95 95 92 79 76
73 78 68 78 81 89 88 91 92 91 91 91 91 90 91 91 89 89 88 90 91 91 92 92 92 93 92 89 84 81 85 90 90 89 89 86 89 86 91 93 92 91 90 79
70 75 82 81 79 89 90 92 90 91 91 90 91 92 91 90 90 91 92 93 92 91 90 90 89 90 91 88 86 82 81 72 76 84 83 82 82 80 82 89 89 89 88 88
79 79 85 85 85 88 90 87 85 85 88 91 90 89 91 91 92 92 92 92 91 91 90 90 88 90 90 88 86 85 83 82 68 83 82 83 82 82 83 90 89 90 87 83
68 76 70 79 81 87 90 89 90 89 88 86 89 91 93 94 92 91 93 93 94 94 93 91 90 90 84 88 88 89 83 81 81 84 86 88 85 85 90 93 90 98 86 82
80 81 77 79 81 85 86 89 89 87 88 89 91 92 91 91 92 91 92 95 96 97 92 90 85 88 91 88 87 89 84 84 84 85 90 85 95 88 96 97 94 90 88 84
77 85 81 82 83 88 89 89 89 90 89 91 91 92 94 93 93 94 94 95 94 93 87 86 84 82 83 87 80 93 90 88 86 85 89 90 91 93 94 86 90 96 94 84
83 82 84 84 84 86 89 89 91 90 90 89 90 89 90 92 94 94 99 99 91 90 91 88 93 90 87 86 86 93 93 92 91 93 93 91 88 91 96 96 94 94 94 97
88 89 88 86 87 87 89 91 92 90 92 92 92 93 94 95 95 96 92 92 96 79 93 92 94 84 87 79 93 94 94 94 92 88 88 91 97 97 97 97 97 96 96 98
92 92 90 91 91 89 92 93 93 92 91 91 92 93 91 91 92 95 95 88 94 86 91 92 86 81 80 94 98 97 97 95 95 96 95 97 97 97 98 97 97 97 98 98
90 89 90 90 90 96 94 93 93 91 89 91 91 90 92 96 98 97 95 80 82 83 88 90 88 81 79 98 99 96 94 94 95 96 98 92 98 96 98 98 98 97 98 96
89 91 96 96 96 92 91 93 96 96 94 94 94 93 91 92 89 93 94 95 83 89 97 87 84 84 96 98 98 98 98 99 98 98 98 97 98 98 98 98 98 98 98 98
88 88 91 91 90 91 92 95 94 94 94 93 93 93 92 91 93 95 96 95 96 94 99 99 99 99 98 98 98 98 100 100 99 99 98 100 99 98 98 98 99 98 98 98
92 88 97 96 94 91 93 93 94 93 89 84 81 89 90 95 95 96 95 97 98 98 99 98 98 95 98 99 98 98 98 98 94 99 98 98 99 99 98 98 98 98 99 99

GFSNGP_sfc_rhum_135.txt.gz
RH
84 91 91 86 87 84 93 86 93 80 88 77 88 97 100 96 89 88 89 89 92 94 94 93 92 92 91 93 93 93 88 94 95 89 90 87 94 88 86 87 98 91 93 98
91 82 84 86 77 82 82 81 82 79 82 76 72 78 92 93 92 92 92 92 92 92 91 92 93 94 92 94 94 92 93 97 97 96 99 99 99 98 98 99 99 98 99 98
91 73 70 74 68 79 82 80 82 83 74 74 74 80 90 96 95 96 95 95 94 94 91 90 91 89 93 91 89 92 93 94 94 95 96 97 96 96 98 98 98 98 98 98
90 72 77 47 74 75 81 79 77 80 75 77 77 79 78 85 95 95 95 94 93 94 91 88 83 82 78 78 81 84 85 87 90 90 92 91 93 94 95 96 97 97 97 98
86 89 63 67 67 82 87 72 75 76 76 78 77 76 79 80 83 89 89 87 88 87 87 82 84 82 80 81 81 85 86 85 84 82 85 85 90 93 93 93 95 96 96 97
88 91 70 45 78 73 68 74 79 79 77 82 82 80 85 88 87 84 84 85 87 84 81 81 79 79 84 87 88 92 90 89 84 84 84 87 87 89 90 88 91 89 90 88
87 91 73 57 74 69 68 49 79 76 79 84 82 77 84 88 87 85 86 89 87 86 89 90 85 78 86 88 95 93 90 91 92 89 90 88 90 89 88 87 86 87 88 86
87 88 68 72 76 75 58 85 78 82 81 84 87 92 90 88 88 86 88 89 88 90 92 90 88 82 88 92 90 87 87 90 92 90 89 88 89 88 87 87 88 89 89 90
70 65 51 74 73 70 75 78 82 79 83 84 90 91 89 88 88 86 86 89 88 90 91 90 90 89 89 93 88 86 85 89 89 88 82 80 82 82 81 79 83 89 91 90
66 57 62 62 73 77 79 79 79 81 82 85 84 85 86 86 88 87 86 87 89 89 92 93 90 90 91 88 85 82 81 85 91 90 91 85 81 81 80 80 79 86 86 89
78 67 71 62 70 70 78 81 81 83 84 84 83 87 85 87 87 87 86 88 88 89 90 92 89 88 87 86 82 83 85 84 85 85 83 82 81 79 81 82 84 85 86 89
52 40 46 36 54 69 78 83 84 85 89 87 84 83 86 88 87 88 89 89 92 91 90 91 90 89 86 84 82 79 78 80 81 78 79 78 74 71 76 73 74 78 76 77
46 67 63 64 78 80 75 84 85 84 83 88 89 85 88 89 90 87 88 89 90 90 89 91 91 91 88 84 82 83 82 75 77 79 75 72 72 75 76 71 70 72 73 76
65 76 67 74 63 82 83 83 81 85 85 86 86 90 88 89 89 92 91 88 88 90 92 92 93 92 89 85 77 81 84 73 73 79 77 76 74 73 75 75 70 68 71 72
64 73 64 78 81 84 88 90 92 90 89 91 91 90 92 92 93 92 90 89 91 93 94 94 93 92 91 86 76 77 79 78 76 75 78 76 73 71 76 75 72 70 69 65
58 68 76 80 79 82 91 93 91 90 92 90 92 94 90 90 90 91 92 93 95 95 93 93 93 89 92 87 81 76 75 75 77 74 72 71 70 68 69 74 73 71 70 69
78 72 80 83 82 81 90 87 86 85 86 90 89 90 93 94 93 94 94 94 93 91 91 91 89 90 91 87 83 79 75 72 69 72 71 73 73 71 72 78 77 76 74 71
74 68 70 70 73 80 84 88 89 90 90 85 89 91 93 95 93 94 94 95 96 96 94 91 89 90 87 83 83 83 77 73 72 72 75 81 78 75 77 81 78 78 75 73
75 76 77 77 82 83 82 84 88 86 88 89 92 91 89 89 90 90 93 96 96 95 89 91 88 87 86 83 84 84 78 76 75 76 78 80 86 81 82 80 78 77 77 76
81 78 82 84 82 84 85 86 87 91 91 91 90 92 93 91 92 92 94 93 89 90 89 86 87 86 81 79 80 85 81 80 80 78 79 83 84 84 82 83 85 86 83 77
78 84 83 83 86 85 86 89 89 91 90 92 90 88 87 85 92 93 98 98 90 91 91 87 90 85 81 81 85 89 85 84 83 83 84 84 83 83 85 86 87 88 85 85
85 90 89 87 89 89 87 88 91 92 92 93 92 90 93 93 94 95 92 90 96 84 95 96 95 88 85 78 86 85 84 85 84 84 88 87 88 90 93 91 91 90 91 90
89 87 83 88 90 89 91 92 91 93 93 92 91 91 90 84 87 95 95 89 94 88 92 92 88 82 79 86 91 91 91 90 90 90 89 92 94 95 95 94 94 93 94 92
85 76 76 81 89 95 92 80 92 92 92 91 91 88 90 96 98 96 92 84 87 87 88 89 85 82 78 95 97 96 96 95 95 94 94 90 97 97 96 94 96 94 94 93
81 84 91 90 89 80 83 84 94 94 96 96 94 93 90 89 84 88 93 94 83 87 91 82 82 82 94 97 97 97 96 96 96 97 96 96 96 96 95 95 96 95 95 94
78 72 74 82 76 73 78 94 92 90 96 95 95 94 95 94 92 90 90 88 91 90 96 96 98 97 99 98 98 97 97 98 96 94 95 96 96 98 96 96 95 95 94 94
88 78 88 89 86 88 89 90 94 90 89 93 92 92 90 91 92 92 90 94 94 98 98 99 98 97 98 98 99 98 96 95 93 95 95 97 97 96 96 94 93 94 95 94

GFSNGP_sfc_rhum_138.txt.gz
RH
66 66 73 71 69 64 89 67 89 66 80 92 81 96 98 93 89 87 87 89 90 91 90 89 89 89 89 90 92 88 87 86 75 70 73 72 66 58 56 60 58 56 57 61
82 58 65 76 63 60 60 63 67 64 58 52 54 65 86 91 93 94 93 92 92 91 89 90 90 90 88 89 89 89 92 96 89 90 88 91 85 83 76 78 76 88 75 73
72 57 54 60 46 49 56 58 58 60 44 52 58 71 86 91 89 93 92 90 90 89 88 88 86 79 86 90 82 86 87 91 94 94 95 93 92 95 97 98 95 98 97 96
65 51 56 36 56 54 56 56 58 58 55 55 62 67 72 73 79 77 75 72 72 73 72 70 70 70 65 67 81 86 89 92 92 93 94 96 95 98 98 96 97 96 97 97
64 57 40 39 46 60 62 45 49 56 51 55 60 61 70 69 66 65 65 63 62 59 58 57 60 64 66 71 70 75 80 80 80 86 90 92 95 94 93 92 94 95 94 93
69 73 48 29 53 54 51 55 50 51 48 53 59 51 56 66 63 62 62 62 63 60 57 55 58 54 59 70 77 88 87 83 74 73 74 79 79 85 85 84 84 82 82 79
58 61 42 35 54 52 54 35 54 53 50 56 57 45 58 64 64 64 65 65 62 59 61 64 61 57 65 67 78 76 84 83 82 80 82 76 77 77 80 81 80 82 81 78
58 63 58 44 59 56 37 53 52 55 54 58 54 64 65 65 64 66 68 67 68 65 68 66 65 58 63 70 69 66 67 74 75 72 71 70 73 71 69 69 75 76 78 82
42 35 35 48 45 42 43 48 54 52 54 53 61 64 63 64 63 63 65 66 66 65 65 64 65 62 63 67 59 54 59 68 69 70 65 65 66 66 64 64 68 73 76 79
44 28 38 34 38 49 47 50 50 50 51 58 58 58 61 61 62 62 64 66 67 66 65 65 64 63 62 61 57 51 51 55 59 64 65 63 70 66 67 66 68 72 74 80
45 37 34 38 39 34 46 53 56 55 53 56 54 57 57 60 61 60 61 65 68 66 65 65 65 62 60 60 56 56 57 57 56 52 52 57 63 62 59 64 66 62 64 62
24 25 28 27 36 42 40 49 54 58 62 60 56 54 58 57 57 59 62 63 68 69 66 66 66 65 62 60 57 52 50 54 53 47 50 54 58 67 73 73 76 77 75 69
32 36 41 40 41 40 49 45 46 56 55 58 60 55 56 56 58 63 61 63 66 66 66 66 68 70 67 63 60 58 50 47 47 41 41 43 47 52 58 63 70 71 72 73
37 40 38 36 37 43 53 52 54 55 54 56 54 60 61 62 64 66 67 63 63 65 68 69 71 72 68 64 59 62 57 62 46 45 50 48 47 50 49 49 49 50 60 68
37 41 40 37 40 45 56 63 65 65 61 63 62 64 66 67 69 68 64 65 67 68 70 72 75 73 70 68 62 58 57 53 48 54 56 56 51 52 53 53 50 47 49 54
46 54 52 52 51 48 53 65 68 62 64 63 64 68 66 67 67 68 69 69 75 76 74 77 76 71 72 71 66 60 57 64 58 54 57 56 53 52 53 55 53 52 51 53
59 52 53 56 57 52 53 57 60 61 62 66 65 63 68 73 76 77 74 70 71 69 68 71 73 69 74 72 67 60 57 61 63 58 56 58 56 55 54 57 57 56 56 59
58 59 58 57 54 59 57 56 59 64 70 70 70 72 79 81 81 78 78 75 75 76 72 69 68 70 73 72 66 62 61 58 60 55 57 64 62 59 59 59 59 59 56 59
56 60 58 58 56 57 60 62 67 68 69 72 77 80 76 75 77 77 77 82 82 83 75 72 82 80 75 73 70 66 64 62 59 60 62 67 74 72 67 61 59 61 60 63
52 57 59 63 62 66 68 65 67 68 66 73 78 78 77 74 74 74 76 82 75 71 69 76 80 77 72 71 80 66 64 62 60 59 63 64 67 66 65 68 67 69 68 67
57 59 58 55 56 58 63 60 63 64 66 75 78 78 76 73 73 78 87 86 78 82 83 84 81 74 71 71 79 70 68 66 64 67 72 73 73 70 69 68 70 70 72 73
68 72 71 69 70 69 63 62 66 72 74 79 84 85 85 85 80 83 77 74 68 84 80 80 78 77 71 77 76 78 78 74 71 73 77 72 73 74 77 82 86 83 82 81
85 77 70 76 82 80 78 75 79 80 82 80 82 82 82 76 73 81 83 75 76 82 79 78 80 84 82 79 76 75 74 77 81 80 80 82 83 87 87 88 89 89 88 86
71 70 66 63 70 72 74 70 83 84 78 84 88 87 86 82 81 78 72 78 83 84 80 78 85 86 83 79 77 79 81 85 86 88 85 85 90 90 90 90 92 89 89 89
76 78 78 82 75 68 71 73 76 77 79 86 85 81 85 80 83 74 81 78 86 85 82 82 83 83 80 83 85 86 88 91 96 92 88 91 91 92 90 91 91 91 91 90
70 66 64 64 66 67 68 69 72 70 69 70 68 69 75 77 78 78 80 78 81 86 83 81 82 81 83 87 89 88 89 89 90 89 88 89 90 90 90 90 90 90 90 87
81 79 75 75 70 72 74 75 77 76 72 72 74 70 73 77 81 78 79 77 79 84 83 86 86 87 92 93 94 92 91 90 90 89 88 90 91 92 90 90 88 86 87 86

GFSNGP_sfc_rhum_144.txt.gz
RH
67 59 59 64 66 64 91 75 90 69 92 64 55 75 91 88 79 74 70 71 74 75 74 73 75 78 81 86 86 85 88 91 93 94 92 88 90 93 87 81 84 84 79 74
81 62 61 64 58 59 63 62 67 64 60 40 51 60 73 80 76 72 69 69 68 66 66 65 68 74 77 82 82 80 86 93 92 94 90 94 97 97 95 96 96 93 92 97
88 59 58 69 52 50 53 54 56 70 52 51 52 55 74 80 76 68 67 66 67 67 65 65 66 67 76 83 83 83 85 88 91 90 93 95 94 94 95 96 96 97 98 97
86 68 76 46 46 51 54 43 49 47 47 47 51 64 72 72 79 68 67 66 66 68 65 63 59 60 65 71 81 84 84 85 88 89 91 93 95 96 95 95 97 96 96 95
84 81 56 42 55 62 66 56 44 46 47 48 55 72 71 67 65 74 78 68 67 65 63 66 65 61 65 70 74 81 79 80 82 87 89 90 96 97 95 93 95 96 95 94
77 86 73 44 46 53 56 76 45 44 48 51 64 87 73 72 62 64 67 68 72 67 67 72 71 64 68 72 74 78 81 81 74 78 84 90 91 94 94 92 93 92 94 94
89 85 64 42 55 58 75 58 54 52 48 49 68 66 70 62 63 64 67 72 75 74 76 75 72 68 75 74 76 78 78 79 80 79 82 83 87 82 85 86 86 88 89 90
80 80 77 56 66 66 50 61 52 58 52 52 52 65 68 65 66 68 70 70 73 79 74 72 73 71 76 78 70 65 74 76 78 79 74 74 81 81 82 86 91 92 91 90
56 63 45 56 53 54 51 53 55 64 57 52 56 57 65 69 68 68 69 73 71 76 76 75 76 73 76 74 66 60 61 66 70 71 71 70 75 78 80 81 87 88 86 86
43 35 37 38 41 44 43 52 52 53 54 56 58 57 63 67 68 69 70 72 73 76 78 77 76 71 73 71 65 63 65 65 62 70 74 77 73 74 90 92 80 77 82 84
48 37 33 41 46 44 43 44 48 51 57 55 57 58 60 65 67 67 68 70 73 78 80 77 74 76 72 70 68 67 66 66 68 69 76 83 91 94 94 93 88 86 86 88
44 33 37 37 48 40 42 43 44 49 60 62 60 60 57 62 64 67 69 71 76 78 81 79 76 77 74 69 68 68 64 65 64 63 70 80 85 90 75 76 75 77 76 82
37 52 44 43 40 37 40 50 46 49 54 56 64 61 60 61 62 66 66 69 74 78 79 80 79 79 77 73 71 71 74 65 62 59 56 62 67 81 80 80 71 73 74 71
41 44 43 39 41 43 44 44 46 57 61 59 52 64 64 65 66 67 71 70 72 74 77 79 81 82 80 78 77 77 77 68 70 64 63 65 66 72 81 80 84 86 71 74
37 37 41 43 46 50 51 51 53 53 56 65 61 66 69 72 73 74 73 73 73 76 78 79 83 84 82 82 83 83 80 83 75 75 76 76 75 73 75 74 74 74 79 71
48 51 55 58 58 57 57 58 59 57 59 66 67 68 70 73 76 76 78 78 82 80 77 79 81 78 84 84 88 88 84 78 75 75 78 81 79 75 77 78 77 74 75 77
59 63 67 64 59 55 53 55 61 59 66 70 72 73 74 78 81 83 84 83 80 76 78 80 78 85 81 82 86 87 85 82 74 82 78 81 80 77 77 79 80 79 76 71
54 56 59 61 61 58 56 54 57 64 69 70 73 79 85 87 88 87 87 87 88 88 85 84 82 85 83 82 86 87 87 83 83 83 78 80 79 80 79 78 78 81 77 74
52 55 58 57 57 58 61 65 68 68 70 75 81 84 85 87 88 88 87 88 92 92 83 87 85 86 87 86 87 90 91 90 87 89 84 74 81 85 87 84 82 80 76 73
54 53 56 61 62 64 69 67 65 67 65 68 73 80 84 85 86 87 88 91 85 82 83 86 87 87 86 89 86 91 90 88 82 79 83 80 83 86 87 79 85 82 78 75
58 61 63 63 64 63 63 64 66 68 68 73 78 80 84 83 85 86 90 94 79 86 88 89 90 88 88 88 88 91 90 87 84 80 77 76 81 86 87 82 80 83 84 83
67 68 70 71 73 74 72 72 74 74 78 82 84 86 88 87 89 90 89 88 79 82 91 94 94 88 90 86 90 92 91 87 85 83 83 82 85 87 88 87 89 88 89 88
88 87 77 81 84 83 82 85 84 83 85 85 86 87 88 84 86 91 86 80 90 90 92 94 92 88 88 90 91 91 90 86 82 80 86 88 88 88 89 90 92 94 94 95
74 74 76 78 82 85 87 81 91 88 87 88 90 90 92 92 87 94 91 85 86 87 89 93 92 87 86 92 94 90 90 86 86 88 86 82 91 93 95 95 96 97 98 92
78 86 91 92 88 88 86 86 90 90 87 90 89 87 85 94 93 82 88 90 86 87 91 89 88 88 92 91 89 88 89 89 94 97 96 95 96 96 97 97 98 98 97 97
76 74 78 83 86 88 89 89 91 91 91 93 91 90 90 90 90 88 91 88 91 89 94 96 96 96 95 91 90 89 94 98 99 98 97 98 98 98 98 98 98 97 97 97
88 82 91 91 89 85 90 92 94 93 91 91 91 88 89 80 78 80 81 81 86 91 94 94 96 94 98 98 98 98 98 98 98 98 98 98 98 98 98 98 98 98 98 97